DW8690 Weather Reports


Display with metric or nautical units.
time (UTC)temp
F
wind
direction
speed
MPH
gust
MPH
rain 1hr
in
rain 24hr
in
rain mn
in
humidity
%
barometer
mb
20260831050904 67 354 2.0 4.0 0.00 0.00 0.00 19 1011.2
20260831050804 67 347 2.0 4.0 0.00 0.00 0.00 19 1011.3
20260831050704 67 342 2.0 4.0 0.00 0.00 0.00 20 1011.2
20260831050604 66 334 2.0 4.0 0.00 0.00 0.00 20 1011.2
20260831050504 66 334 2.0 5.0 0.00 0.00 0.00 20 1011.3
20260831050404 66 328 2.0 5.0 0.00 0.00 0.00 20 1011.3
20260831050304 66 332 2.0 5.0 0.00 0.00 0.00 20 1011.3
20260831050203 66 327 2.0 5.0 0.00 0.00 0.00 20 1011.2
20260831050103 66 320 2.0 5.0 0.00 0.00 0.00 20 1011.3
20260831050004 66 316 2.0 5.0 0.00 0.00 0.00 21 1011.2
20260831045804 66 319 1.0 5.0 0.00 0.00 0.00 21 1011.2
20260831045704 66 323 1.0 5.0 0.00 0.00 0.00 21 1011.2
20260831045604 66 325 2.0 5.0 0.00 0.00 0.00 21 1011.3
20260831045504 65 318 2.0 5.0 0.00 0.00 0.00 21 1011.3
20260831045404 65 317 3.0 5.0 0.00 0.00 0.00 21 1011.3
20260831044703 66 0 0.0 2.0 0.00 0.00 0.00 20 1011.2
20260831044604 66 0 0.0 2.0 0.00 0.00 0.00 20 1011.2
20260831044504 66 0 0.0 2.0 0.00 0.00 0.00 20 1011.3
20260831044404 66 0 0.0 2.0 0.00 0.00 0.00 20 1011.3
20260831044304 66 339 1.0 2.0 0.00 0.00 0.00 20 1011.3
20260831044203 66 346 1.0 2.0 0.00 0.00 0.00 20 1011.2
20260831044104 66 345 1.0 2.0 0.00 0.00 0.00 20 1011.3
20260831044004 66 351 2.0 2.0 0.00 0.00 0.00 20 1011.2
20260831043903 66 1 1.0 2.0 0.00 0.00 0.00 20 1011.3
20260831043803 67 351 1.0 2.0 0.00 0.00 0.00 20 1011.3
20260831043704 67 0 0.0 2.0 0.00 0.00 0.00 18 1011.3
20260831043604 67 0 0.0 2.0 0.00 0.00 0.00 18 1011.2
20260831043504 67 0 0.0 2.0 0.00 0.00 0.00 18 1011.2
20260831043404 67 0 0.0 2.0 0.00 0.00 0.00 18 1011.3
20260831043303 67 0 0.0 2.0 0.00 0.00 0.00 18 1011.2
20260831043004 67 0 0.0 2.0 0.00 0.00 0.00 18 1011.2
20260831042903 68 315 1.0 2.0 0.00 0.00 0.00 18 1011.2
20260831042804 68 0 0.0 2.0 0.00 0.00 0.00 18 1011.2
20260831042704 68 0 0.0 2.0 0.00 0.00 0.00 18 1011.2
20260831042603 68 0 0.0 2.0 0.00 0.00 0.00 18 1011.2
20260831041904 68 311 1.0 3.0 0.00 0.00 0.00 18 1011.2
20260831041804 68 315 1.0 3.0 0.00 0.00 0.00 18 1011.1
20260831041704 68 308 1.0 4.0 0.00 0.00 0.00 18 1011.1
20260831041604 68 304 1.0 4.0 0.00 0.00 0.00 18 1011.2
20260831041504 68 301 1.0 4.0 0.00 0.00 0.00 18 1011.1
20260831041304 68 302 1.0 4.0 0.00 0.00 0.00 18 1011.1
20260831041203 68 308 1.0 4.0 0.00 0.00 0.00 18 1011.1
20260831041104 68 307 2.0 4.0 0.00 0.00 0.00 18 1011.2
20260831041004 68 307 2.0 4.0 0.00 0.00 0.00 18 1011.0
20260831040903 68 307 2.0 4.0 0.00 0.00 0.00 18 1011.1
20260831040804 68 308 2.0 4.0 0.00 0.00 0.00 19 1011.1
20260831040704 68 313 2.0 4.0 0.00 0.00 0.00 19 1011.0
20260831040603 68 321 2.0 4.0 0.00 0.00 0.00 19 1011.1
20260831040503 68 325 2.0 4.0 0.00 0.00 0.00 19 1011.0
20260831040404 68 329 2.0 4.0 0.00 0.00 0.00 19 1011.0
20260831040305 68 327 2.0 4.0 0.00 0.00 0.00 20 1011.0
20260831040203 67 0 0.0 2.0 0.00 0.00 0.00 20 1010.9
20260831040104 67 0 0.0 2.0 0.00 0.00 0.00 20 1011.0
20260831040004 67 319 1.0 2.0 0.00 0.00 0.00 20 1011.0
20260831035904 67 320 1.0 2.0 0.00 0.00 0.00 20 1010.9
20260831035804 67 319 1.0 2.0 0.00 0.00 0.00 20 1010.9
20260831035704 67 317 1.0 2.0 0.00 0.00 0.00 20 1010.9
20260831035103 68 0 0.0 2.0 0.00 0.00 0.00 20 1010.9
20260831035003 68 0 0.0 2.0 0.00 0.00 0.00 19 1010.9
20260831034904 68 0 0.0 2.0 0.00 0.00 0.00 19 1010.9
20260831034804 68 0 0.0 2.0 0.00 0.00 0.00 19 1010.8
20260831034703 68 0 0.0 2.0 0.00 0.00 0.00 19 1010.9
20260831034604 68 0 0.0 2.0 0.00 0.00 0.00 19 1010.8
20260831034504 69 0 0.0 2.0 0.00 0.00 0.00 19 1010.8
20260831034403 69 303 1.0 2.0 0.00 0.00 0.00 18 1010.9
20260831034304 69 0 0.0 2.0 0.00 0.00 0.00 18 1010.7
20260831034204 69 0 0.0 2.0 0.00 0.00 0.00 18 1010.8
20260831034105 69 0 0.0 2.0 0.00 0.00 0.00 18 1010.8
20260831034003 69 0 0.0 2.0 0.00 0.00 0.00 18 1010.8
20260831033904 69 0 0.0 2.0 0.00 0.00 0.00 17 1010.8
20260831033804 69 0 0.0 2.0 0.00 0.00 0.00 17 1010.7
20260831033703 69 0 0.0 2.0 0.00 0.00 0.00 17 1010.7
20260831033604 69 0 0.0 2.0 0.00 0.00 0.00 17 1010.8
20260831033504 69 0 0.0 2.0 0.00 0.00 0.00 17 1010.8
20260831033403 70 0 0.0 2.0 0.00 0.00 0.00 17 1010.8
20260831033304 70 0 0.0 2.0 0.00 0.00 0.00 17 1010.7
20260831033204 70 281 1.0 2.0 0.00 0.00 0.00 17 1010.7
20260831032904 70 272 1.0 2.0 0.00 0.00 0.00 16 1010.7
20260831032804 70 269 1.0 2.0 0.00 0.00 0.00 16 1010.7
20260831032703 70 0 0.0 3.0 0.00 0.00 0.00 16 1010.7
20260831032603 70 0 0.0 4.0 0.00 0.00 0.00 16 1010.6
20260831032504 70 272 1.0 4.0 0.00 0.00 0.00 16 1010.6
20260831032404 70 0 0.0 4.0 0.00 0.00 0.00 16 1010.6
20260831032306 71 276 1.0 4.0 0.00 0.00 0.00 16 1010.6
20260831032204 71 279 1.0 4.0 0.00 0.00 0.00 16 1010.6
20260831032104 71 0 0.0 4.0 0.00 0.00 0.00 16 1010.5
20260831032003 71 0 0.0 4.0 0.00 0.00 0.00 16 1010.6
20260831031904 71 301 1.0 4.0 0.00 0.00 0.00 16 1010.6
20260831031804 71 304 1.0 4.0 0.00 0.00 0.00 16 1010.5
20260831031703 71 309 2.0 4.0 0.00 0.00 0.00 16 1010.5
20260831031603 71 311 1.0 2.0 0.00 0.00 0.00 15 1010.5
20260831031504 71 0 0.0 2.0 0.00 0.00 0.00 15 1010.5
20260831031404 71 0 0.0 2.0 0.00 0.00 0.00 15 1010.5
20260831031303 72 0 0.0 2.0 0.00 0.00 0.00 15 1010.5
20260831031204 72 0 0.0 2.0 0.00 0.00 0.00 15 1010.6
20260831031104 72 0 0.0 2.0 0.00 0.00 0.00 15 1010.4
20260831031003 72 311 1.0 2.0 0.00 0.00 0.00 14 1010.5
20260831030904 72 261 1.0 2.0 0.00 0.00 0.00 14 1010.4
20260831030803 72 0 0.0 1.0 0.00 0.00 0.00 14 1010.3
20260831030704 74 0 0.0 1.0 0.00 0.00 0.00 13 1010.4
20260831030604 74 0 0.0 2.0 0.00 0.00 0.00 13 1010.3
20260831030504 74 0 0.0 2.0 0.00 0.00 0.00 13 1010.3
20260831030403 74 0 0.0 2.0 0.00 0.00 0.00 13 1010.3
20260831030303 74 0 0.0 2.0 0.00 0.00 0.00 13 1010.4
20260831030204 74 0 0.0 2.0 0.00 0.00 0.00 13 1010.3
20260831030104 74 0 0.0 2.0 0.00 0.00 0.00 13 1010.2
20260831030003 74 0 0.0 2.0 0.00 0.00 0.00 13 1010.1
20260831025904 74 0 0.0 2.0 0.00 0.00 0.00 12 1010.2
20260831025804 74 0 0.0 2.0 0.00 0.00 0.00 12 1010.1
20260831025704 74 0 0.0 2.0 0.00 0.00 0.00 12 1010.1
20260831025604 75 0 0.0 3.0 0.00 0.00 0.00 12 1010.1
20260831025503 75 0 0.0 3.0 0.00 0.00 0.00 11 1010.1
20260831025403 75 0 0.0 3.0 0.00 0.00 0.00 11 1010.1
20260831025306 75 0 0.0 3.0 0.00 0.00 0.00 11 1010.1
20260831025203 76 0 0.0 3.0 0.00 0.00 0.00 10 1010.1
20260831025103 76 0 0.0 3.0 0.00 0.00 0.00 10 1010.1
20260831025004 76 0 0.0 3.0 0.00 0.00 0.00 10 1010.1
20260831024904 76 0 0.0 3.0 0.00 0.00 0.00 10 1010.1
20260831024803 77 0 0.0 3.0 0.00 0.00 0.00 10 1010.1
20260831024703 77 320 1.0 4.0 0.00 0.00 0.00 10 1010.1
20260831024604 77 326 2.0 4.0 0.00 0.00 0.00 10 1010.1
20260831024504 77 0 0.0 4.0 0.00 0.00 0.00 10 1010.0
20260831024403 78 0 0.0 4.0 0.00 0.00 0.00 10 1010.0
20260831024303 78 0 0.0 4.0 0.00 0.00 0.00 10 1009.9
20260831024204 78 0 0.0 4.0 0.00 0.00 0.00 10 1010.0
20260831024103 78 0 0.0 4.0 0.00 0.00 0.00 10 1009.9
20260831024003 78 0 0.0 4.0 0.00 0.00 0.00 10 1009.9
20260831023904 78 0 0.0 4.0 0.00 0.00 0.00 10 1009.9
20260831023804 78 323 1.0 4.0 0.00 0.00 0.00 10 1009.9
20260831023704 79 327 2.0 4.0 0.00 0.00 0.00 10 1009.9
20260831023603 79 336 2.0 4.0 0.00 0.00 0.00 10 1009.9
20260831023503 79 343 2.0 5.0 0.00 0.00 0.00 10 1009.8
20260831023404 79 352 2.0 5.0 0.00 0.00 0.00 10 1009.9
20260831023304 79 357 2.0 5.0 0.00 0.00 0.00 10 1009.8
20260831022703 79 21 2.0 5.0 0.00 0.00 0.00 10 1009.7
20260831022604 79 24 3.0 5.0 0.00 0.00 0.00 10 1009.8
20260831022504 79 26 2.0 5.0 0.00 0.00 0.00 10 1009.8
20260831022403 79 24 2.0 5.0 0.00 0.00 0.00 10 1009.8
20260831022306 80 28 2.0 5.0 0.00 0.00 0.00 10 1009.8
20260831022204 80 34 2.0 5.0 0.00 0.00 0.00 10 1009.8
20260831022103 80 36 2.0 5.0 0.00 0.00 0.00 10 1009.8
20260831022004 80 41 2.0 4.0 0.00 0.00 0.00 10 1009.7
20260831021903 80 41 1.0 4.0 0.00 0.00 0.00 10 1009.8
20260831021803 80 41 2.0 5.0 0.00 0.00 0.00 10 1009.7
20260831021704 80 40 2.0 6.0 0.00 0.00 0.00 10 1009.7
20260831021604 81 29 2.0 7.0 0.00 0.00 0.00 10 1009.7
20260831021503 81 24 2.0 8.0 0.00 0.00 0.00 10 1009.7
20260831021404 81 23 2.0 8.0 0.00 0.00 0.00 10 1009.8
20260831021304 81 13 2.0 8.0 0.00 0.00 0.00 10 1009.8
20260831021203 81 17 2.0 8.0 0.00 0.00 0.00 10 1009.7
20260831021103 81 19 2.0 8.0 0.00 0.00 0.00 10 1009.7
20260831021004 82 20 2.0 8.0 0.00 0.00 0.00 10 1009.7
20260831020903 82 21 2.0 8.0 0.00 0.00 0.00 10 1009.8
20260831020803 82 23 4.0 8.0 0.00 0.00 0.00 10 1009.7
20260831020704 82 24 3.0 8.0 0.00 0.00 0.00 10 1009.7
20260831020604 82 31 5.0 8.0 0.00 0.00 0.00 10 1009.7
20260831020503 82 37 4.0 8.0 0.00 0.00 0.00 10 1009.7
20260831020404 83 42 5.0 8.0 0.00 0.00 0.00 10 1009.7
20260831020304 83 49 6.0 8.0 0.00 0.00 0.00 10 1009.6
20260831020203 83 53 5.0 8.0 0.00 0.00 0.00 10 1009.6
20260831020104 83 53 5.0 8.0 0.00 0.00 0.00 10 1009.5
20260831020004 84 48 4.0 8.0 0.00 0.00 0.00 10 1009.6
20260831015404 85 21 5.0 8.0 0.00 0.00 0.00 10 1009.6
20260831014804 85 329 2.0 8.0 0.00 0.00 0.00 10 1009.6
20260831014703 85 326 2.0 8.0 0.00 0.00 0.00 10 1009.6
20260831014604 86 327 2.0 8.0 0.00 0.00 0.00 10 1009.6
20260831014503 86 326 2.0 8.0 0.00 0.00 0.00 10 1009.7
20260831014404 86 325 3.0 8.0 0.00 0.00 0.00 10 1009.7
20260831014305 86 328 2.0 8.0 0.00 0.00 0.00 10 1009.6
20260831014203 86 328 2.0 8.0 0.00 0.00 0.00 10 1009.7
20260831014103 86 336 2.0 8.0 0.00 0.00 0.00 10 1009.7
20260831014004 86 345 4.0 8.0 0.00 0.00 0.00 10 1009.7
20260831013904 86 349 3.0 6.0 0.00 0.00 0.00 10 1009.7
20260831013804 86 359 3.0 6.0 0.00 0.00 0.00 10 1009.6
20260831013704 86 5 3.0 6.0 0.00 0.00 0.00 10 1009.7
20260831013603 86 6 3.0 7.0 0.00 0.00 0.00 10 1009.7
20260831013503 86 9 3.0 7.0 0.00 0.00 0.00 10 1009.6
20260831013404 86 9 2.0 7.0 0.00 0.00 0.00 10 1009.6
20260831013304 86 7 2.0 7.0 0.00 0.00 0.00 10 1009.6
20260831013203 86 5 3.0 7.0 0.00 0.00 0.00 10 1009.6
20260831012704 86 346 4.0 7.0 0.00 0.00 0.00 10 1009.6
20260831012604 87 345 2.0 7.0 0.00 0.00 0.00 10 1009.7
20260831012503 87 349 2.0 7.0 0.00 0.00 0.00 10 1009.6
20260831012404 87 353 2.0 7.0 0.00 0.00 0.00 10 1009.5
20260831012306 87 354 4.0 7.0 0.00 0.00 0.00 10 1009.6
20260831012204 87 359 3.0 7.0 0.00 0.00 0.00 10 1009.6
20260831012104 87 355 4.0 7.0 0.00 0.00 0.00 10 1009.6
20260831012003 87 346 4.0 7.0 0.00 0.00 0.00 10 1009.6
20260831011904 87 354 2.0 6.0 0.00 0.00 0.00 10 1009.5
20260831011804 87 354 3.0 6.0 0.00 0.00 0.00 10 1009.7
20260831011703 87 340 3.0 6.0 0.00 0.00 0.00 10 1009.6
20260831011604 87 0 0.0 8.0 0.00 0.00 0.00 10 1009.8
20260831011503 87 339 3.0 8.0 0.00 0.00 0.00 10 1009.6
20260831011403 87 338 3.0 8.0 0.00 0.00 0.00 10 1009.6
20260831011304 87 341 2.0 8.0 0.00 0.00 0.00 10 1009.8
20260831011204 87 351 1.0 10.0 0.00 0.00 0.00 10 1009.8
20260831011103 87 354 2.0 10.0 0.00 0.00 0.00 10 1009.7
20260831011004 87 1 1.0 10.0 0.00 0.00 0.00 10 1009.7
20260831010904 87 0 0.0 10.0 0.00 0.00 0.00 10 1009.7
20260831010803 87 356 4.0 10.0 0.00 0.00 0.00 10 1009.7
20260831010704 87 357 4.0 10.0 0.00 0.00 0.00 10 1009.7
20260831010603 87 354 4.0 10.0 0.00 0.00 0.00 10 1009.7
20260831010504 87 359 3.0 10.0 0.00 0.00 0.00 10 1009.6
20260831010404 87 356 5.0 11.0 0.00 0.00 0.00 10 1009.7
20260831010303 87 352 7.0 11.0 0.00 0.00 0.00 10 1009.6
20260831010204 87 344 6.0 11.0 0.00 0.00 0.00 10 1009.7
20260831005604 87 24 7.0 12.0 0.00 0.00 0.00 10 1009.7
20260831005503 87 27 6.0 12.0 0.00 0.00 0.00 10 1009.7
20260831005404 87 48 5.0 12.0 0.00 0.00 0.00 10 1009.7
20260831005306 87 54 4.0 12.0 0.00 0.00 0.00 10 1009.7
20260831005204 87 57 3.0 12.0 0.00 0.00 0.00 10 1009.7
20260831005104 87 57 4.0 12.0 0.00 0.00 0.00 10 1009.7
20260831005003 87 61 5.0 12.0 0.00 0.00 0.00 10 1009.6
20260831004904 87 58 7.0 12.0 0.00 0.00 0.00 10 1009.6
20260831004804 87 52 2.0 9.0 0.00 0.00 0.00 10 1009.7
20260831004703 87 49 3.0 9.0 0.00 0.00 0.00 10 1009.6
20260831004604 88 42 4.0 9.0 0.00 0.00 0.00 10 1009.6
20260831004503 88 26 4.0 9.0 0.00 0.00 0.00 10 1009.7
20260831004404 88 6 4.0 8.0 0.00 0.00 0.00 10 1009.5
20260831004304 88 355 4.0 8.0 0.00 0.00 0.00 10 1009.7
20260831004203 88 351 6.0 8.0 0.00 0.00 0.00 10 1009.6
20260831004104 88 353 4.0 8.0 0.00 0.00 0.00 10 1009.6
20260831004004 88 358 2.0 8.0 0.00 0.00 0.00 10 1009.6
20260831003903 88 5 2.0 9.0 0.00 0.00 0.00 10 1009.6
20260831003804 88 1 4.0 10.0 0.00 0.00 0.00 10 1009.7
20260831003703 88 7 3.0 10.0 0.00 0.00 0.00 10 1009.6
20260831003603 88 12 4.0 10.0 0.00 0.00 0.00 10 1009.6
20260831003504 88 20 4.0 10.0 0.00 0.00 0.00 10 1009.6
20260831003303 87 35 5.0 10.0 0.00 0.00 0.00 10 1009.7
20260831003203 88 37 4.0 10.0 0.00 0.00 0.00 10 1009.7
20260831003104 88 42 4.0 11.0 0.00 0.00 0.00 10 1009.7
20260831003003 88 47 4.0 13.0 0.00 0.00 0.00 10 1009.7
20260831002904 87 47 5.0 13.0 0.00 0.00 0.00 10 1009.7
20260831002203 88 50 5.0 13.0 0.00 0.00 0.00 10 1009.5
20260831002104 88 43 7.0 13.0 0.00 0.00 0.00 10 1009.8
20260831002004 88 42 8.0 13.0 0.00 0.00 0.00 10 1009.8
20260831001903 88 45 6.0 11.0 0.00 0.00 0.00 10 1009.7
20260831001804 88 48 7.0 11.0 0.00 0.00 0.00 10 1009.7
20260831001704 88 56 4.0 10.0 0.00 0.00 0.00 10 1009.5
20260831001603 88 56 4.0 10.0 0.00 0.00 0.00 10 1009.6
20260831001504 88 57 2.0 10.0 0.00 0.00 0.00 10 1009.7
20260831001403 88 49 6.0 10.0 0.00 0.00 0.00 10 1009.7
20260831001303 88 40 5.0 10.0 0.00 0.00 0.00 10 1009.7
20260831001203 88 33 4.0 9.0 0.00 0.00 0.00 10 1009.6
20260831001105 88 35 3.0 9.0 0.00 0.00 0.00 10 1009.6
20260831001004 88 27 2.0 9.0 0.00 0.00 0.00 10 1009.7
20260831000903 89 29 3.0 9.0 0.00 0.00 0.00 10 1009.7
20260831000803 89 20 7.0 9.0 0.00 0.00 0.00 10 1009.6
20260831000703 89 10 3.0 9.0 0.00 0.00 0.00 10 1009.7
20260831000603 89 13 4.0 9.0 0.00 0.00 0.00 10 1009.6
20260831000504 89 20 3.0 9.0 0.00 0.00 0.00 10 1009.7
20260831000406 89 29 4.0 9.0 0.00 0.00 0.00 10 1009.7
20260831000306 89 49 4.0 9.0 0.00 0.00 0.00 10 1009.6
20260831000207 89 52 5.0 9.0 0.00 0.00 0.00 10 1009.7
20260831000107 89 59 3.0 5.0 0.00 0.00 0.00 10 1009.6
20260831000007 89 51 3.0 5.0 0.00 0.00 0.00 10 1009.7
20260830235907 89 0 0.0 5.0 0.00 0.00 0.00 10 1009.8
20260830235807 89 3 1.0 5.0 0.00 0.00 0.00 10 1009.7
20260830235706 89 300 1.0 5.0 0.00 0.00 0.00 10 1009.7
20260830235606 89 265 3.0 5.0 0.00 0.00 0.00 10 1009.7
20260830235507 89 262 2.0 5.0 0.00 0.00 0.00 10 1009.7
20260830235407 88 250 2.0 5.0 0.00 0.00 0.00 10 1009.7
20260830235306 88 255 2.0 5.0 0.00 0.00 0.00 10 1009.7
20260830235206 88 254 3.0 6.0 0.00 0.00 0.00 10 1009.7
20260830235107 88 262 2.0 7.0 0.00 0.00 0.00 10 1009.6
20260830235007 88 276 2.0 8.0 0.00 0.00 0.00 10 1009.7
20260830234906 88 313 2.0 11.0 0.00 0.00 0.00 10 1009.6
20260830234807 88 311 3.0 11.0 0.00 0.00 0.00 10 1009.6
20260830234707 88 318 2.0 11.0 0.00 0.00 0.00 10 1009.7
20260830234607 88 0 0.0 11.0 0.00 0.00 0.00 10 1009.7
20260830234507 88 0 0.0 11.0 0.00 0.00 0.00 10 1009.7
20260830234407 88 323 1.0 11.0 0.00 0.00 0.00 10 1009.7
20260830234307 88 327 1.0 11.0 0.00 0.00 0.00 10 1009.7
20260830234206 88 336 3.0 11.0 0.00 0.00 0.00 10 1009.8
20260830234107 88 345 4.0 11.0 0.00 0.00 0.00 10 1009.8
20260830234007 88 346 5.0 11.0 0.00 0.00 0.00 10 1009.7
20260830233907 89 334 5.0 11.0 0.00 0.00 0.00 10 1009.8
20260830233806 89 347 5.0 8.0 0.00 0.00 0.00 10 1009.8
20260830233707 89 348 5.0 8.0 0.00 0.00 0.00 10 1009.7
20260830233607 89 359 4.0 8.0 0.00 0.00 0.00 10 1009.7
20260830233506 89 5 4.0 8.0 0.00 0.00 0.00 10 1009.8
20260830233407 89 30 4.0 9.0 0.00 0.00 0.00 10 1009.7
20260830233307 89 23 3.0 9.0 0.00 0.00 0.00 10 1009.8
20260830233207 89 7 4.0 9.0 0.00 0.00 0.00 10 1009.6
20260830233107 89 0 0.0 9.0 0.00 0.00 0.00 10 1009.7
20260830233007 89 0 0.0 9.0 0.00 0.00 0.00 10 1009.7
20260830232907 89 323 1.0 9.0 0.00 0.00 0.00 10 1009.8
20260830232706 89 343 2.0 9.0 0.00 0.00 0.00 10 1009.7
20260830232607 89 12 3.0 9.0 0.00 0.00 0.00 10 1009.7
20260830232507 89 18 4.0 9.0 0.00 0.00 0.00 10 1009.7
20260830232406 89 348 5.0 9.0 0.00 0.00 0.00 10 1009.8
20260830232207 89 354 2.0 9.0 0.00 0.00 0.00 10 1009.9
20260830232107 89 17 3.0 9.0 0.00 0.00 0.00 10 1009.8
20260830232007 89 47 2.0 9.0 0.00 0.00 0.00 10 1009.8
20260830231906 89 44 2.0 9.0 0.00 0.00 0.00 10 1009.9
20260830231807 89 34 3.0 9.0 0.00 0.00 0.00 10 1009.9
20260830231706 89 22 5.0 9.0 0.00 0.00 0.00 10 1009.8
20260830231607 89 7 1.0 7.0 0.00 0.00 0.00 10 1009.9
20260830231507 89 357 1.0 7.0 0.00 0.00 0.00 10 1009.9
20260830231406 89 2 2.0 7.0 0.00 0.00 0.00 10 1009.9
20260830231307 89 357 1.0 7.0 0.00 0.00 0.00 10 1009.8
20260830231206 89 350 4.0 7.0 0.00 0.00 0.00 10 1009.9
20260830231106 89 351 3.0 14.0 0.00 0.00 0.00 10 1009.9
20260830231007 89 5 3.0 14.0 0.00 0.00 0.00 10 1009.9
20260830230907 89 359 1.0 14.0 0.00 0.00 0.00 10 1009.9
20260830230806 89 355 2.0 14.0 0.00 0.00 0.00 10 1009.9
20260830230607 89 353 3.0 14.0 0.00 0.00 0.00 10 1009.8
20260830230507 89 351 2.0 14.0 0.00 0.00 0.00 10 1010.0
20260830230406 89 348 1.0 14.0 0.00 0.00 0.00 10 1009.9
20260830230307 89 351 2.0 14.0 0.00 0.00 0.00 10 1009.9
20260830230207 89 355 3.0 14.0 0.00 0.00 0.00 10 1010.0
20260830230106 89 347 7.0 14.0 0.00 0.00 0.00 10 1010.0
20260830230006 89 322 7.0 14.0 0.00 0.00 0.00 10 1009.9
20260830225907 89 309 2.0 10.0 0.00 0.00 0.00 10 1010.0
20260830225807 89 312 2.0 10.0 0.00 0.00 0.00 10 1010.0
20260830225706 89 317 2.0 10.0 0.00 0.00 0.00 10 1010.0
20260830225607 89 319 2.0 10.0 0.00 0.00 0.00 10 1010.1
20260830225507 89 315 3.0 10.0 0.00 0.00 0.00 10 1010.0
20260830225407 89 308 2.0 10.0 0.00 0.00 0.00 10 1010.0
20260830225307 88 0 0.0 10.0 0.00 0.00 0.00 10 1010.1
20260830225207 88 284 3.0 10.0 0.00 0.00 0.00 10 1010.0
20260830225108 88 275 4.0 10.0 0.00 0.00 0.00 10 1010.0
20260830225007 88 271 4.0 10.0 0.00 0.00 0.00 10 1010.1
20260830224907 88 262 4.0 8.0 0.00 0.00 0.00 10 1010.2
20260830224807 88 254 5.0 11.0 0.00 0.00 0.00 10 1010.1
20260830224707 87 253 1.0 11.0 0.00 0.00 0.00 10 1010.3
20260830224507 87 269 2.0 11.0 0.00 0.00 0.00 10 1010.2
20260830224407 87 279 1.0 11.0 0.00 0.00 0.00 10 1010.2
20260830224306 87 294 3.0 11.0 0.00 0.00 0.00 10 1010.4
20260830224207 87 313 2.0 11.0 0.00 0.00 0.00 10 1010.3
20260830224106 87 328 2.0 11.0 0.00 0.00 0.00 10 1010.4
20260830224006 87 338 2.0 11.0 0.00 0.00 0.00 10 1010.5
20260830223907 88 350 8.0 11.0 0.00 0.00 0.00 10 1010.4
20260830223807 88 11 2.0 15.0 0.00 0.00 0.00 10 1010.4
20260830223706 88 21 3.0 15.0 0.00 0.00 0.00 10 1010.4
20260830223607 88 14 5.0 15.0 0.00 0.00 0.00 10 1010.3
20260830223507 88 12 3.0 15.0 0.00 0.00 0.00 10 1010.3
20260830223406 88 5 2.0 15.0 0.00 0.00 0.00 10 1010.3
20260830223307 88 2 2.0 15.0 0.00 0.00 0.00 10 1010.3
20260830223207 88 356 4.0 15.0 0.00 0.00 0.00 10 1010.4
20260830223106 88 2 4.0 15.0 0.00 0.00 0.00 10 1010.5
20260830223006 88 11 4.0 15.0 0.00 0.00 0.00 10 1010.4
20260830222907 88 12 6.0 15.0 0.00 0.00 0.00 10 1010.4
20260830222807 88 7 9.0 15.0 0.00 0.00 0.00 10 1010.5
20260830222707 88 351 5.0 9.0 0.00 0.00 0.00 10 1010.3
20260830222607 88 10 4.0 8.0 0.00 0.00 0.00 10 1010.4
20260830222507 88 14 2.0 8.0 0.00 0.00 0.00 10 1010.4
20260830222406 88 18 4.0 8.0 0.00 0.00 0.00 10 1010.5
20260830222307 88 15 2.0 8.0 0.00 0.00 0.00 10 1010.4
20260830222207 88 20 2.0 8.0 0.00 0.00 0.00 10 1010.5
20260830222106 88 11 4.0 8.0 0.00 0.00 0.00 10 1010.5
20260830222006 88 358 5.0 8.0 0.00 0.00 0.00 10 1010.6
20260830221907 88 0 0.0 8.0 0.00 0.00 0.00 10 1010.6
20260830221407 88 259 4.0 7.0 0.00 0.00 0.00 10 1010.7
20260830220807 88 208 3.0 7.0 0.00 0.00 0.00 10 1010.7
20260830220707 88 209 2.0 7.0 0.00 0.00 0.00 10 1010.7
20260830220606 88 205 2.0 7.0 0.00 0.00 0.00 10 1010.8
20260830220506 88 201 1.0 7.0 0.00 0.00 0.00 10 1010.7
20260830220407 87 218 2.0 7.0 0.00 0.00 0.00 10 1010.8
20260830220307 87 231 3.0 7.0 0.00 0.00 0.00 10 1010.9
20260830220206 87 299 4.0 8.0 0.00 0.00 0.00 10 1010.9
20260830220107 88 320 5.0 8.0 0.00 0.00 0.00 10 1011.0
20260830220007 88 341 5.0 8.0 0.00 0.00 0.00 10 1010.8
20260830215907 88 344 1.0 8.0 0.00 0.00 0.00 10 1010.9
20260830215807 88 335 2.0 8.0 0.00 0.00 0.00 10 1010.9
20260830215707 88 337 2.0 11.0 0.00 0.00 0.00 10 1010.9
20260830215607 88 325 1.0 11.0 0.00 0.00 0.00 10 1010.9
20260830215507 88 320 1.0 11.0 0.00 0.00 0.00 10 1010.9
20260830215407 88 326 2.0 11.0 0.00 0.00 0.00 10 1011.0
20260830215307 88 331 2.0 11.0 0.00 0.00 0.00 10 1011.1
20260830215208 88 334 4.0 11.0 0.00 0.00 0.00 10 1011.0
20260830215107 88 340 4.0 11.0 0.00 0.00 0.00 10 1011.0
20260830215006 88 339 4.0 11.0 0.00 0.00 0.00 10 1011.1
20260830214906 87 352 3.0 11.0 0.00 0.00 0.00 10 1011.0
20260830214807 87 3 4.0 11.0 0.00 0.00 0.00 10 1011.1
20260830214707 87 7 4.0 10.0 0.00 0.00 0.00 10 1011.1
20260830214607 87 7 7.0 10.0 0.00 0.00 0.00 10 1011.1
20260830214507 87 9 7.0 10.0 0.00 0.00 0.00 10 1011.0
20260830214406 87 13 5.0 10.0 0.00 0.00 0.00 10 1011.2
20260830214307 87 17 3.0 10.0 0.00 0.00 0.00 10 1011.2
20260830214207 87 2 3.0 10.0 0.00 0.00 0.00 10 1011.2
20260830214107 87 340 2.0 10.0 0.00 0.00 0.00 10 1011.2
20260830214007 87 337 1.0 10.0 0.00 0.00 0.00 10 1011.2
20260830213907 87 309 4.0 10.0 0.00 0.00 0.00 10 1011.3
20260830213806 87 304 4.0 10.0 0.00 0.00 0.00 10 1011.2
20260830213707 87 300 4.0 10.0 0.00 0.00 0.00 10 1011.3
20260830213607 87 302 5.0 10.0 0.00 0.00 0.00 10 1011.2
20260830213106 87 335 3.0 10.0 0.00 0.00 0.00 10 1011.3
20260830212406 86 72 3.0 9.0 0.00 0.00 0.00 10 1011.3
20260830212306 86 78 2.0 9.0 0.00 0.00 0.00 10 1011.3
20260830212207 86 80 2.0 9.0 0.00 0.00 0.00 10 1011.4
20260830212107 86 84 1.0 9.0 0.00 0.00 0.00 10 1011.4
20260830212006 86 82 3.0 9.0 0.00 0.00 0.00 10 1011.4
20260830211907 86 74 4.0 9.0 0.00 0.00 0.00 10 1011.5
20260830211807 86 60 1.0 8.0 0.00 0.00 0.00 10 1011.5
20260830211706 86 48 1.0 8.0 0.00 0.00 0.00 10 1011.5
20260830211607 86 40 4.0 8.0 0.00 0.00 0.00 10 1011.4
20260830211507 86 30 4.0 8.0 0.00 0.00 0.00 10 1011.5
20260830211406 86 356 5.0 8.0 0.00 0.00 0.00 10 1011.5
20260830211307 86 295 4.0 5.0 0.00 0.00 0.00 10 1011.6
20260830211207 86 291 2.0 4.0 0.00 0.00 0.00 10 1011.5
20260830211106 86 295 2.0 7.0 0.00 0.00 0.00 10 1011.5
20260830211007 86 263 1.0 7.0 0.00 0.00 0.00 10 1011.6
20260830210907 85 0 0.0 8.0 0.00 0.00 0.00 10 1011.5
20260830210806 85 221 1.0 9.0 0.00 0.00 0.00 10 1011.5
20260830210706 85 206 2.0 9.0 0.00 0.00 0.00 10 1011.5
20260830210607 85 205 1.0 9.0 0.00 0.00 0.00 10 1011.6
20260830210507 85 208 1.0 9.0 0.00 0.00 0.00 10 1011.6
20260830210406 85 210 2.0 9.0 0.00 0.00 0.00 10 1011.7
20260830210307 84 216 1.0 9.0 0.00 0.00 0.00 10 1011.7
20260830210207 84 221 2.0 9.0 0.00 0.00 0.00 10 1011.7
20260830210106 84 227 4.0 11.0 0.00 0.00 0.00 10 1011.7
20260830210007 84 227 4.0 11.0 0.00 0.00 0.00 10 1011.7
20260830205906 84 227 4.0 11.0 0.00 0.00 0.00 10 1011.7
20260830205807 84 233 4.0 11.0 0.00 0.00 0.00 10 1011.6
20260830205707 84 242 3.0 11.0 0.00 0.00 0.00 10 1011.7
20260830205606 84 247 4.0 11.0 0.00 0.00 0.00 10 1011.7
20260830205506 84 248 3.0 11.0 0.00 0.00 0.00 10 1011.8
20260830205407 84 250 2.0 11.0 0.00 0.00 0.00 10 1011.7
20260830205308 84 254 3.0 11.0 0.00 0.00 0.00 10 1011.6
20260830204806 84 293 8.0 11.0 0.00 0.00 0.00 10 1011.7
20260830204706 84 313 4.0 8.0 0.00 0.00 0.00 10 1011.8
20260830204607 84 340 2.0 8.0 0.00 0.00 0.00 10 1011.9
20260830204506 84 5 2.0 8.0 0.00 0.00 0.00 10 1011.8
20260830204406 85 21 2.0 8.0 0.00 0.00 0.00 10 1011.8
20260830204307 85 30 3.0 8.0 0.00 0.00 0.00 10 1011.9
20260830204207 85 35 2.0 9.0 0.00 0.00 0.00 10 1012.0
20260830204106 85 31 2.0 11.0 0.00 0.00 0.00 10 1011.9
20260830204007 85 34 1.0 11.0 0.00 0.00 0.00 10 1011.9
20260830203907 84 35 1.0 11.0 0.00 0.00 0.00 10 1011.9
20260830203807 84 37 4.0 11.0 0.00 0.00 0.00 10 1012.0
20260830203706 84 34 3.0 11.0 0.00 0.00 0.00 10 1011.9
20260830203607 84 33 6.0 11.0 0.00 0.00 0.00 10 1011.9
20260830203507 84 33 3.0 11.0 0.00 0.00 0.00 10 1012.0
20260830203406 84 35 5.0 11.0 0.00 0.00 0.00 10 1012.0
20260830203306 84 37 4.0 11.0 0.00 0.00 0.00 10 1012.0
20260830203208 84 39 5.0 11.0 0.00 0.00 0.00 10 1012.0
20260830203107 84 47 1.0 11.0 0.00 0.00 0.00 10 1011.9
20260830203006 84 42 1.0 11.0 0.00 0.00 0.00 10 1012.0
20260830202907 84 35 2.0 11.0 0.00 0.00 0.00 10 1012.0
20260830202807 84 31 3.0 11.0 0.00 0.00 0.00 10 1012.0
20260830202707 84 35 6.0 11.0 0.00 0.00 0.00 10 1012.1
20260830202607 84 25 2.0 8.0 0.00 0.00 0.00 10 1012.0
20260830201906 83 330 2.0 7.0 0.00 0.00 0.00 10 1012.1
20260830201806 83 336 3.0 7.0 0.00 0.00 0.00 10 1012.0
20260830201707 83 339 2.0 7.0 0.00 0.00 0.00 10 1012.1
20260830201607 83 342 4.0 7.0 0.00 0.00 0.00 10 1012.0
20260830201506 83 346 4.0 7.0 0.00 0.00 0.00 10 1012.1
20260830201307 83 338 2.0 8.0 0.00 0.00 0.00 10 1012.2
20260830201206 83 325 2.0 8.0 0.00 0.00 0.00 10 1012.2
20260830201106 83 320 3.0 8.0 0.00 0.00 0.00 10 1012.2
20260830201006 83 329 4.0 8.0 0.00 0.00 0.00 10 1012.1
20260830200907 83 333 3.0 8.0 0.00 0.00 0.00 10 1012.0
20260830200806 83 337 2.0 8.0 0.00 0.00 0.00 10 1012.1
20260830200706 83 332 2.0 8.0 0.00 0.00 0.00 10 1012.0
20260830200607 83 337 4.0 8.0 0.00 0.00 0.00 10 1012.1
20260830200507 83 347 4.0 8.0 0.00 0.00 0.00 10 1012.1
20260830200406 83 351 5.0 8.0 0.00 0.00 0.00 10 1012.1
20260830200307 83 356 4.0 7.0 0.00 0.00 0.00 10 1012.3
20260830200206 83 4 3.0 10.0 0.00 0.00 0.00 10 1012.2
20260830200106 83 7 4.0 10.0 0.00 0.00 0.00 10 1012.2
20260830200007 83 8 4.0 10.0 0.00 0.00 0.00 10 1012.2
20260830195907 83 8 2.0 10.0 0.00 0.00 0.00 10 1012.3
20260830195807 83 354 4.0 10.0 0.00 0.00 0.00 10 1012.2
20260830195707 83 343 3.0 10.0 0.00 0.00 0.00 10 1012.3
20260830195607 83 347 2.0 10.0 0.00 0.00 0.00 10 1012.3
20260830195506 83 353 4.0 10.0 0.00 0.00 0.00 10 1012.3
20260830195406 83 358 3.0 10.0 0.00 0.00 0.00 10 1012.4
20260830195307 82 348 4.0 10.0 0.00 0.00 0.00 10 1012.3
20260830195207 82 359 5.0 10.0 0.00 0.00 0.00 10 1012.3
20260830195106 82 5 2.0 9.0 0.00 0.00 0.00 10 1012.4
20260830195007 82 4 3.0 9.0 0.00 0.00 0.00 10 1012.3
20260830194907 82 11 3.0 9.0 0.00 0.00 0.00 10 1012.4
20260830194806 82 17 3.0 9.0 0.00 0.00 0.00 10 1012.4
20260830194707 82 28 1.0 9.0 0.00 0.00 0.00 10 1012.4
20260830194607 82 27 2.0 9.0 0.00 0.00 0.00 10 1012.4
20260830194506 82 23 2.0 9.0 0.00 0.00 0.00 10 1012.5
20260830194406 82 30 4.0 10.0 0.00 0.00 0.00 10 1012.4
20260830194307 82 42 4.0 10.0 0.00 0.00 0.00 10 1012.4
20260830194207 82 43 4.0 10.0 0.00 0.00 0.00 10 1012.5
20260830194106 82 46 6.0 10.0 0.00 0.00 0.00 10 1012.4
20260830194006 82 63 2.0 10.0 0.00 0.00 0.00 10 1012.4
20260830193807 81 100 3.0 10.0 0.00 0.00 0.00 10 1012.5
20260830193206 81 219 1.0 8.0 0.00 0.00 0.00 10 1012.6
20260830193107 81 114 3.0 8.0 0.00 0.00 0.00 10 1012.6
20260830193007 81 3 3.0 8.0 0.00 0.00 0.00 10 1012.6
20260830192907 81 6 4.0 8.0 0.00 0.00 0.00 10 1012.6
20260830192807 81 17 2.0 7.0 0.00 0.00 0.00 10 1012.5
20260830192707 81 27 3.0 7.0 0.00 0.00 0.00 10 1012.6
20260830192607 81 46 2.0 8.0 0.00 0.00 0.00 10 1012.7
20260830192506 81 50 2.0 8.0 0.00 0.00 0.00 10 1012.7
20260830192407 81 52 2.0 9.0 0.00 0.00 0.00 10 1012.6
20260830192307 81 44 2.0 9.0 0.00 0.00 0.00 10 1012.6
20260830192207 81 53 2.0 9.0 0.00 0.00 0.00 10 1012.8
20260830192107 81 58 2.0 9.0 0.00 0.00 0.00 10 1012.7
20260830192006 81 0 0.0 9.0 0.00 0.00 0.00 10 1012.8
20260830191906 81 60 1.0 9.0 0.00 0.00 0.00 10 1012.7
20260830191806 81 55 2.0 9.0 0.00 0.00 0.00 10 1012.8
20260830191707 81 53 4.0 9.0 0.00 0.00 0.00 10 1012.8
20260830191606 80 52 5.0 9.0 0.00 0.00 0.00 10 1012.8
20260830191506 80 47 5.0 9.0 0.00 0.00 0.00 10 1012.8
20260830191407 80 42 6.0 9.0 0.00 0.00 0.00 10 1012.8
20260830191307 80 38 5.0 8.0 0.00 0.00 0.00 10 1012.8
20260830191206 80 12 5.0 8.0 0.00 0.00 0.00 10 1012.8
20260830191107 80 346 4.0 8.0 0.00 0.00 0.00 10 1012.8
20260830191006 80 329 4.0 8.0 0.00 0.00 0.00 10 1012.8
20260830190906 80 325 4.0 8.0 0.00 0.00 0.00 10 1012.9
20260830190807 80 313 4.0 8.0 0.00 0.00 0.00 10 1012.9
20260830190707 80 310 1.0 8.0 0.00 0.00 0.00 10 1012.9
20260830190606 80 316 1.0 8.0 0.00 0.00 0.00 10 1012.8
20260830190507 80 325 4.0 8.0 0.00 0.00 0.00 10 1012.9
20260830190407 80 331 5.0 8.0 0.00 0.00 0.00 10 1012.9
20260830190307 80 335 3.0 8.0 0.00 0.00 0.00 10 1012.9
20260830190207 80 326 1.0 8.0 0.00 0.00 0.00 10 1012.9
20260830190106 80 326 2.0 9.0 0.00 0.00 0.00 10 1012.9
20260830190007 80 325 2.0 9.0 0.00 0.00 0.00 10 1012.9
20260830185907 80 314 4.0 9.0 0.00 0.00 0.00 10 1013.1
20260830185806 80 318 1.0 9.0 0.00 0.00 0.00 10 1013.1
20260830185706 80 319 3.0 9.0 0.00 0.00 0.00 10 1013.0
20260830185607 80 316 3.0 9.0 0.00 0.00 0.00 10 1013.1
20260830185506 80 317 4.0 9.0 0.00 0.00 0.00 10 1013.1
20260830185407 79 319 4.0 9.0 0.00 0.00 0.00 10 1013.1
20260830185306 80 328 4.0 9.0 0.00 0.00 0.00 10 1013.2
20260830185207 80 339 3.0 9.0 0.00 0.00 0.00 10 1013.1
20260830185107 80 353 5.0 9.0 0.00 0.00 0.00 10 1013.1
20260830185006 80 9 4.0 9.0 0.00 0.00 0.00 10 1013.1
20260830184906 80 17 4.0 9.0 0.00 0.00 0.00 10 1013.2
20260830184807 79 15 2.0 9.0 0.00 0.00 0.00 10 1013.2
20260830184707 79 8 3.0 9.0 0.00 0.00 0.00 10 1013.3
20260830184606 79 10 5.0 9.0 0.00 0.00 0.00 10 1013.2
20260830184507 79 10 5.0 9.0 0.00 0.00 0.00 10 1013.2
20260830184407 79 14 2.0 7.0 0.00 0.00 0.00 10 1013.4
20260830184306 79 8 2.0 7.0 0.00 0.00 0.00 10 1013.4
20260830184207 78 10 2.0 7.0 0.00 0.00 0.00 10 1013.4
20260830184107 79 343 4.0 8.0 0.00 0.00 0.00 10 1013.4
20260830184007 78 320 3.0 8.0 0.00 0.00 0.00 10 1013.4
20260830183906 78 313 4.0 8.0 0.00 0.00 0.00 10 1013.4
20260830183806 78 309 3.0 8.0 0.00 0.00 0.00 10 1013.4
20260830183707 78 309 4.0 8.0 0.00 0.00 0.00 10 1013.5
20260830183606 78 307 1.0 9.0 0.00 0.00 0.00 10 1013.4
20260830183506 78 310 2.0 9.0 0.00 0.00 0.00 10 1013.5
20260830183407 78 312 1.0 9.0 0.00 0.00 0.00 10 1013.6
20260830183307 78 0 0.0 9.0 0.00 0.00 0.00 10 1013.5
20260830183206 78 308 2.0 9.0 0.00 0.00 0.00 10 1013.5
20260830183106 78 315 4.0 9.0 0.00 0.00 0.00 10 1013.5
20260830183007 78 319 4.0 9.0 0.00 0.00 0.00 10 1013.6
20260830182906 78 326 3.0 9.0 0.00 0.00 0.00 10 1013.6
20260830182806 78 336 3.0 9.0 0.00 0.00 0.00 10 1013.5
20260830182706 78 355 3.0 9.0 0.00 0.00 0.00 10 1013.5
20260830182607 78 5 4.0 8.0 0.00 0.00 0.00 10 1013.6
20260830182506 78 359 3.0 8.0 0.00 0.00 0.00 10 1013.6
20260830182406 78 1 3.0 8.0 0.00 0.00 0.00 10 1013.7
20260830182307 77 7 2.0 8.0 0.00 0.00 0.00 11 1013.7
20260830182207 77 6 2.0 8.0 0.00 0.00 0.00 11 1013.6
20260830182106 77 0 0.0 8.0 0.00 0.00 0.00 10 1013.8
20260830182007 77 310 1.0 8.0 0.00 0.00 0.00 10 1013.7
20260830181906 77 253 5.0 8.0 0.00 0.00 0.00 11 1013.7
20260830181806 77 256 6.0 8.0 0.00 0.00 0.00 11 1013.7
20260830181707 77 270 4.0 8.0 0.00 0.00 0.00 11 1013.7
20260830181607 76 281 3.0 8.0 0.00 0.00 0.00 11 1013.7
20260830181506 76 292 3.0 8.0 0.00 0.00 0.00 11 1013.8
20260830181406 76 293 2.0 8.0 0.00 0.00 0.00 12 1013.8
20260830181207 76 283 3.0 8.0 0.00 0.00 0.00 11 1013.7
20260830181106 77 0 0.0 8.0 0.00 0.00 0.00 12 1013.8
20260830181006 77 303 2.0 8.0 0.00 0.00 0.00 11 1013.9
20260830180907 77 325 2.0 8.0 0.00 0.00 0.00 11 1013.8
20260830180807 77 352 4.0 8.0 0.00 0.00 0.00 11 1013.8
20260830180706 77 32 3.0 8.0 0.00 0.00 0.00 12 1013.7
20260830180606 76 71 4.0 8.0 0.00 0.00 0.00 12 1013.7
20260830180507 76 79 2.0 8.0 0.00 0.00 0.00 12 1013.8
20260830180406 76 78 2.0 8.0 0.00 0.00 0.00 12 1013.8
20260830180307 77 64 2.0 8.0 0.00 0.00 0.00 11 1013.8
20260830180206 77 48 3.0 8.0 0.00 0.00 0.00 11 1013.8
20260830180107 77 0 0.0 8.0 0.00 0.00 0.00 12 1013.7
20260830180007 77 0 0.0 8.0 0.00 0.00 0.00 12 1013.9
20260830175906 77 29 4.0 8.0 0.00 0.00 0.00 12 1013.8
20260830175807 77 21 2.0 8.0 0.00 0.00 0.00 12 1013.9
20260830175706 77 10 2.0 8.0 0.00 0.00 0.00 12 1013.8
20260830175606 77 3 2.0 8.0 0.00 0.00 0.00 11 1013.9
20260830175507 77 356 3.0 8.0 0.00 0.00 0.00 11 1013.9
20260830175407 77 6 3.0 8.0 0.00 0.00 0.00 12 1013.9
20260830175307 77 7 1.0 8.0 0.00 0.00 0.00 12 1013.9
20260830175207 77 15 2.0 8.0 0.00 0.00 0.00 12 1013.9
20260830175007 76 357 4.0 8.0 0.00 0.00 0.00 12 1013.9
20260830174907 76 289 3.0 7.0 0.00 0.00 0.00 13 1013.9
20260830174806 76 270 2.0 7.0 0.00 0.00 0.00 13 1013.9
20260830174707 76 246 2.0 5.0 0.00 0.00 0.00 14 1013.9
20260830174607 76 0 0.0 5.0 0.00 0.00 0.00 13 1013.9
20260830174506 76 0 0.0 5.0 0.00 0.00 0.00 13 1013.9
20260830174407 76 269 1.0 5.0 0.00 0.00 0.00 14 1013.9
20260830174307 75 309 2.0 5.0 0.00 0.00 0.00 13 1013.9
20260830174206 75 308 2.0 6.0 0.00 0.00 0.00 13 1014.0
20260830174106 75 316 1.0 6.0 0.00 0.00 0.00 13 1014.0
20260830174007 76 318 2.0 6.0 0.00 0.00 0.00 13 1013.9
20260830173906 76 322 3.0 7.0 0.00 0.00 0.00 13 1014.1
20260830173806 76 312 3.0 7.0 0.00 0.00 0.00 13 1013.9
20260830173706 76 301 2.0 8.0 0.00 0.00 0.00 13 1013.9
20260830173607 75 306 2.0 8.0 0.00 0.00 0.00 13 1013.9
20260830173506 75 300 2.0 8.0 0.00 0.00 0.00 14 1013.9
20260830173406 75 297 1.0 8.0 0.00 0.00 0.00 14 1013.9
20260830173307 75 298 2.0 8.0 0.00 0.00 0.00 13 1013.9
20260830173207 75 299 3.0 8.0 0.00 0.00 0.00 13 1013.9
20260830173106 76 293 4.0 8.0 0.00 0.00 0.00 13 1013.9
20260830173007 76 309 4.0 8.0 0.00 0.00 0.00 13 1013.9
20260830172906 76 333 4.0 8.0 0.00 0.00 0.00 13 1013.9
20260830172806 76 354 3.0 8.0 0.00 0.00 0.00 14 1013.9
20260830172707 76 13 1.0 6.0 0.00 0.00 0.00 15 1014.0
20260830172606 76 6 1.0 6.0 0.00 0.00 0.00 15 1013.9
20260830172506 76 354 1.0 6.0 0.00 0.00 0.00 14 1013.9
20260830172407 75 0 0.0 6.0 0.00 0.00 0.00 14 1014.0
20260830172306 75 354 2.0 6.0 0.00 0.00 0.00 13 1013.9
20260830172207 75 346 2.0 6.0 0.00 0.00 0.00 13 1014.0
20260830172107 75 356 2.0 6.0 0.00 0.00 0.00 13 1014.0
20260830172006 75 2 4.0 6.0 0.00 0.00 0.00 13 1014.0
20260830171907 75 346 2.0 6.0 0.00 0.00 0.00 14 1014.0
20260830171806 75 333 3.0 6.0 0.00 0.00 0.00 15 1014.0
20260830171706 75 336 2.0 7.0 0.00 0.00 0.00 15 1014.0
20260830171607 74 340 2.0 7.0 0.00 0.00 0.00 15 1013.9
20260830171506 74 347 2.0 7.0 0.00 0.00 0.00 15 1014.0
20260830171406 74 343 3.0 7.0 0.00 0.00 0.00 16 1014.0
20260830171306 74 324 2.0 7.0 0.00 0.00 0.00 15 1014.0
20260830171207 74 319 1.0 7.0 0.00 0.00 0.00 15 1014.0
20260830171106 74 316 3.0 7.0 0.00 0.00 0.00 16 1014.1
20260830171007 74 318 3.0 7.0 0.00 0.00 0.00 16 1014.1
20260830170907 74 319 2.0 7.0 0.00 0.00 0.00 17 1014.0
20260830170806 73 342 1.0 7.0 0.00 0.00 0.00 18 1014.1
20260830170708 73 356 2.0 6.0 0.00 0.00 0.00 18 1013.9
20260830170106 74 43 2.0 6.0 0.00 0.00 0.00 17 1013.9
20260830170006 73 38 3.0 6.0 0.00 0.00 0.00 17 1014.0
20260830165906 73 25 2.0 6.0 0.00 0.00 0.00 17 1014.0
20260830165807 73 6 4.0 6.0 0.00 0.00 0.00 17 1014.0
20260830165706 73 346 2.0 4.0 0.00 0.00 0.00 19 1014.0
20260830165606 73 328 2.0 4.0 0.00 0.00 0.00 19 1014.0
20260830165507 73 310 2.0 4.0 0.00 0.00 0.00 19 1014.0
20260830165407 73 0 0.0 4.0 0.00 0.00 0.00 19 1014.1
20260830165306 72 0 0.0 4.0 0.00 0.00 0.00 19 1014.1
20260830165207 72 295 1.0 4.0 0.00 0.00 0.00 19 1014.0
20260830165106 72 288 2.0 4.0 0.00 0.00 0.00 19 1014.1
20260830165006 72 288 2.0 4.0 0.00 0.00 0.00 20 1014.0
20260830164906 72 281 2.0 4.0 0.00 0.00 0.00 20 1014.0
20260830164807 72 280 2.0 4.0 0.00 0.00 0.00 20 1014.0
20260830164707 72 278 1.0 4.0 0.00 0.00 0.00 20 1014.0
20260830164606 72 295 2.0 4.0 0.00 0.00 0.00 20 1014.0
20260830164506 72 0 0.0 4.0 0.00 0.00 0.00 20 1014.1
20260830164407 72 355 2.0 4.0 0.00 0.00 0.00 20 1014.1
20260830164306 72 53 2.0 4.0 0.00 0.00 0.00 20 1014.0
20260830164206 72 60 2.0 4.0 0.00 0.00 0.00 20 1014.1
20260830164106 72 65 2.0 4.0 0.00 0.00 0.00 20 1014.0
20260830164007 72 52 1.0 4.0 0.00 0.00 0.00 21 1014.1
20260830163906 71 41 2.0 4.0 0.00 0.00 0.00 20 1014.1
20260830163807 71 34 2.0 5.0 0.00 0.00 0.00 20 1013.9
20260830163707 71 33 2.0 5.0 0.00 0.00 0.00 21 1014.0
20260830163606 71 35 2.0 5.0 0.00 0.00 0.00 21 1014.0
20260830163507 71 36 1.0 5.0 0.00 0.00 0.00 21 1014.0
20260830163407 71 35 2.0 5.0 0.00 0.00 0.00 21 1014.0
20260830163306 71 37 1.0 5.0 0.00 0.00 0.00 21 1014.0
20260830163207 71 40 1.0 5.0 0.00 0.00 0.00 21 1013.9
20260830163107 71 47 2.0 5.0 0.00 0.00 0.00 21 1014.0
20260830163006 70 50 2.0 5.0 0.00 0.00 0.00 22 1014.0
20260830162907 70 61 2.0 5.0 0.00 0.00 0.00 22 1014.1
20260830162806 70 82 2.0 5.0 0.00 0.00 0.00 23 1014.0
20260830162706 70 273 1.0 3.0 0.00 0.00 0.00 26 1014.1
20260830162607 69 297 2.0 3.0 0.00 0.00 0.00 26 1014.0
20260830162506 69 0 0.0 3.0 0.00 0.00 0.00 26 1014.0
20260830162406 69 0 0.0 3.0 0.00 0.00 0.00 25 1014.1
20260830162307 69 0 0.0 3.0 0.00 0.00 0.00 25 1014.1
20260830162206 69 0 0.0 3.0 0.00 0.00 0.00 25 1014.0
20260830162107 69 307 2.0 3.0 0.00 0.00 0.00 25 1014.0
20260830162007 69 310 1.0 2.0 0.00 0.00 0.00 26 1014.0
20260830161906 69 307 1.0 2.0 0.00 0.00 0.00 26 1014.1
20260830161806 69 296 1.0 2.0 0.00 0.00 0.00 26 1014.0
20260830161707 69 261 1.0 3.0 0.00 0.00 0.00 26 1014.1
20260830161606 69 152 1.0 3.0 0.00 0.00 0.00 26 1014.0
20260830161506 69 147 1.0 3.0 0.00 0.00 0.00 26 1014.1
20260830161406 69 143 1.0 3.0 0.00 0.00 0.00 26 1014.1
20260830161307 69 0 0.0 3.0 0.00 0.00 0.00 27 1014.1
20260830161206 68 146 1.0 3.0 0.00 0.00 0.00 28 1014.0
20260830161106 68 0 0.0 3.0 0.00 0.00 0.00 28 1014.0
20260830160906 68 0 0.0 3.0 0.00 0.00 0.00 28 1014.2
20260830160807 68 164 1.0 3.0 0.00 0.00 0.00 28 1014.2
20260830160706 67 174 1.0 3.0 0.00 0.00 0.00 29 1014.2
20260830160606 67 190 1.0 2.0 0.00 0.00 0.00 29 1014.2
20260830160506 67 193 1.0 2.0 0.00 0.00 0.00 29 1014.0
20260830160407 67 209 1.0 2.0 0.00 0.00 0.00 29 1014.2
20260830160306 66 0 0.0 3.0 0.00 0.00 0.00 30 1014.2
20260830160206 66 0 0.0 3.0 0.00 0.00 0.00 30 1014.2
20260830160106 66 244 1.0 3.0 0.00 0.00 0.00 29 1014.2
20260830160007 66 256 1.0 4.0 0.00 0.00 0.00 29 1014.2
20260830155207 65 243 1.0 4.0 0.00 0.00 0.00 30 1014.3
20260830155106 65 245 2.0 4.0 0.00 0.00 0.00 30 1014.3
20260830155006 65 245 2.0 4.0 0.00 0.00 0.00 30 1014.1
20260830154907 65 242 2.0 4.0 0.00 0.00 0.00 30 1014.3
20260830154806 65 240 2.0 4.0 0.00 0.00 0.00 29 1014.3
20260830154706 65 238 2.0 4.0 0.00 0.00 0.00 29 1014.1
20260830154606 65 239 2.0 4.0 0.00 0.00 0.00 29 1014.3
20260830154507 65 246 2.0 4.0 0.00 0.00 0.00 29 1014.2
20260830154406 65 249 1.0 4.0 0.00 0.00 0.00 29 1014.3
20260830154206 65 248 1.0 4.0 0.00 0.00 0.00 29 1014.1
20260830154107 65 246 1.0 4.0 0.00 0.00 0.00 28 1014.1
20260830154006 65 232 2.0 4.0 0.00 0.00 0.00 29 1014.2
20260830153906 66 208 2.0 4.0 0.00 0.00 0.00 29 1014.1
20260830153806 66 183 1.0 2.0 0.00 0.00 0.00 29 1014.1
20260830153707 66 172 1.0 2.0 0.00 0.00 0.00 29 1014.1
20260830153606 65 0 0.0 2.0 0.00 0.00 0.00 29 1014.1
20260830153507 66 0 0.0 2.0 0.00 0.00 0.00 29 1014.2
20260830153407 66 174 1.0 2.0 0.00 0.00 0.00 29 1014.2
20260830153306 65 0 0.0 2.0 0.00 0.00 0.00 29 1014.1
20260830153207 65 168 1.0 2.0 0.00 0.00 0.00 29 1014.2
20260830153106 65 0 0.0 2.0 0.00 0.00 0.00 30 1014.2
20260830153006 65 0 0.0 2.0 0.00 0.00 0.00 30 1014.2
20260830152906 65 0 0.0 2.0 0.00 0.00 0.00 30 1014.2
20260830152807 65 0 0.0 2.0 0.00 0.00 0.00 30 1014.3
20260830152706 65 0 0.0 2.0 0.00 0.00 0.00 31 1014.2
20260830152606 65 0 0.0 2.0 0.00 0.00 0.00 31 1014.2
20260830152506 65 0 0.0 2.0 0.00 0.00 0.00 31 1014.2
20260830152407 65 0 0.0 2.0 0.00 0.00 0.00 31 1014.2
20260830152306 64 0 0.0 2.0 0.00 0.00 0.00 32 1014.3
20260830152206 64 0 0.0 2.0 0.00 0.00 0.00 32 1014.2
20260830152006 64 0 0.0 2.0 0.00 0.00 0.00 33 1014.3
20260830151906 64 0 0.0 2.0 0.00 0.00 0.00 32 1014.2
20260830151806 64 128 1.0 3.0 0.00 0.00 0.00 32 1014.2
20260830151706 64 130 1.0 3.0 0.00 0.00 0.00 33 1014.3
20260830151606 63 0 0.0 3.0 0.00 0.00 0.00 33 1014.2
20260830151507 63 0 0.0 3.0 0.00 0.00 0.00 33 1014.1
20260830151406 63 0 0.0 3.0 0.00 0.00 0.00 33 1014.2
20260830151306 63 127 1.0 3.0 0.00 0.00 0.00 33 1014.2
20260830151206 63 0 0.0 3.0 0.00 0.00 0.00 33 1014.3
20260830151107 62 0 0.0 3.0 0.00 0.00 0.00 34 1014.2
20260830151006 62 127 1.0 3.0 0.00 0.00 0.00 34 1014.2
20260830150507 61 0 0.0 4.0 0.00 0.00 0.00 35 1014.2
20260830150406 61 0 0.0 4.0 0.00 0.00 0.00 35 1014.2
20260830150306 61 112 1.0 4.0 0.00 0.00 0.00 35 1014.1
20260830150207 60 106 1.0 4.0 0.00 0.00 0.00 35 1014.2
20260830150106 60 0 0.0 4.0 0.00 0.00 0.00 36 1014.2
20260830150006 60 0 0.0 4.0 0.00 0.00 0.00 36 1014.2
20260830145907 60 100 1.0 4.0 0.00 0.00 0.00 36 1014.2
20260830145806 60 97 1.0 4.0 0.00 0.00 0.00 36 1014.2
20260830145706 60 94 1.0 4.0 0.00 0.00 0.00 35 1014.2
20260830145606 60 90 2.0 4.0 0.00 0.00 0.00 35 1014.2
20260830145507 59 90 2.0 4.0 0.00 0.00 0.00 36 1014.2
20260830145406 59 95 2.0 4.0 0.00 0.00 0.00 36 1014.2
20260830145307 59 96 2.0 4.0 0.00 0.00 0.00 36 1014.2
20260830145207 59 97 2.0 4.0 0.00 0.00 0.00 37 1014.2
20260830145106 59 98 2.0 4.0 0.00 0.00 0.00 37 1014.2
20260830145007 59 97 2.0 4.0 0.00 0.00 0.00 38 1014.2
20260830144906 59 104 3.0 4.0 0.00 0.00 0.00 38 1014.2
20260830144806 59 109 2.0 4.0 0.00 0.00 0.00 39 1014.2
20260830144707 58 113 2.0 4.0 0.00 0.00 0.00 40 1014.2
20260830144606 58 121 1.0 3.0 0.00 0.00 0.00 41 1014.2
20260830144506 58 127 1.0 3.0 0.00 0.00 0.00 41 1014.2
20260830144406 58 129 2.0 3.0 0.00 0.00 0.00 42 1014.1
20260830144306 57 0 0.0 2.0 0.00 0.00 0.00 43 1014.3
20260830144207 57 0 0.0 3.0 0.00 0.00 0.00 43 1014.1
20260830144106 57 0 0.0 3.0 0.00 0.00 0.00 43 1014.0
20260830144006 56 0 0.0 3.0 0.00 0.00 0.00 43 1014.1
20260830143906 56 0 0.0 3.0 0.00 0.00 0.00 44 1014.1
20260830143806 56 0 0.0 3.0 0.00 0.00 0.00 44 1014.2
20260830143706 56 0 0.0 3.0 0.00 0.00 0.00 45 1014.1
20260830143206 54 102 2.0 3.0 0.00 0.00 0.00 47 1014.2
20260830143106 54 105 2.0 3.0 0.00 0.00 0.00 47 1014.2
20260830143007 54 107 2.0 3.0 0.00 0.00 0.00 47 1014.3
20260830142906 54 108 2.0 3.0 0.00 0.00 0.00 48 1014.2
20260830142807 53 106 1.0 4.0 0.00 0.00 0.00 48 1014.2
20260830142706 53 104 1.0 4.0 0.00 0.00 0.00 49 1014.2
20260830142206 52 0 0.0 4.0 0.00 0.00 0.00 50 1014.2
20260830142106 52 0 0.0 4.0 0.00 0.00 0.00 50 1014.2
20260830142007 52 0 0.0 4.0 0.00 0.00 0.00 50 1014.1
20260830141906 51 97 2.0 4.0 0.00 0.00 0.00 50 1014.2
20260830141807 51 100 3.0 4.0 0.00 0.00 0.00 50 1014.2
20260830141707 51 107 3.0 4.0 0.00 0.00 0.00 50 1014.1
20260830141606 51 115 1.0 2.0 0.00 0.00 0.00 52 1014.1
20260830141507 51 128 1.0 2.0 0.00 0.00 0.00 52 1014.1
20260830141407 51 0 0.0 2.0 0.00 0.00 0.00 53 1014.2
20260830141306 50 0 0.0 1.0 0.00 0.00 0.00 53 1014.1
20260830141207 50 0 0.0 1.0 0.00 0.00 0.00 53 1014.0
20260830141106 50 0 0.0 1.0 0.00 0.00 0.00 54 1014.0
20260830141006 49 0 0.0 1.0 0.00 0.00 0.00 54 1014.0
20260830140907 49 0 0.0 1.0 0.00 0.00 0.00 55 1014.1
20260830140806 49 0 0.0 1.0 0.00 0.00 0.00 55 1013.9
20260830140706 49 0 0.0 2.0 0.00 0.00 0.00 56 1013.9
20260830140607 48 0 0.0 2.0 0.00 0.00 0.00 56 1014.0
20260830140506 48 0 0.0 2.0 0.00 0.00 0.00 56 1013.9
20260830140406 48 0 0.0 2.0 0.00 0.00 0.00 56 1014.0
20260830140306 48 0 0.0 3.0 0.00 0.00 0.00 56 1013.9
20260830140207 47 0 0.0 3.0 0.00 0.00 0.00 56 1013.9
20260830140106 47 0 0.0 3.0 0.00 0.00 0.00 56 1013.9
20260830140006 47 0 0.0 3.0 0.00 0.00 0.00 56 1014.0
20260830135906 47 0 0.0 3.0 0.00 0.00 0.00 57 1013.9
20260830135806 47 0 0.0 3.0 0.00 0.00 0.00 58 1014.0
20260830135707 47 0 0.0 3.0 0.00 0.00 0.00 58 1013.9
20260830135106 46 0 0.0 0.0 0.00 0.00 0.00 59 1013.9
20260830135006 46 0 0.0 0.0 0.00 0.00 0.00 59 1013.9
20260830134906 46 0 0.0 0.0 0.00 0.00 0.00 59 1013.9
20260830134807 45 0 0.0 0.0 0.00 0.00 0.00 59 1013.8
20260830134706 45 0 0.0 0.0 0.00 0.00 0.00 59 1013.8
20260830134606 45 0 0.0 0.0 0.00 0.00 0.00 59 1013.7
20260830134506 45 0 0.0 1.0 0.00 0.00 0.00 59 1013.8
20260830134406 45 0 0.0 3.0 0.00 0.00 0.00 59 1013.8
20260830134307 45 0 0.0 3.0 0.00 0.00 0.00 59 1013.8
20260830134206 45 0 0.0 3.0 0.00 0.00 0.00 59 1013.7
20260830134006 45 0 0.0 3.0 0.00 0.00 0.00 59 1013.7
20260830133907 45 0 0.0 3.0 0.00 0.00 0.00 59 1013.7
20260830133806 45 0 0.0 3.0 0.00 0.00 0.00 59 1013.8
20260830133706 45 0 0.0 3.0 0.00 0.00 0.00 59 1013.8
20260830133607 45 0 0.0 3.0 0.00 0.00 0.00 59 1013.7
20260830133006 45 0 0.0 4.0 0.00 0.00 0.00 58 1013.8
20260830132906 45 0 0.0 4.0 0.00 0.00 0.00 58 1013.8
20260830132807 45 0 0.0 4.0 0.00 0.00 0.00 58 1013.8
20260830132706 45 0 0.0 4.0 0.00 0.00 0.00 58 1013.7
20260830132607 45 0 0.0 4.0 0.00 0.00 0.00 58 1013.7
20260830132506 45 0 0.0 4.0 0.00 0.00 0.00 58 1013.6
20260830132406 45 104 1.0 4.0 0.00 0.00 0.00 58 1013.6
20260830132307 45 100 2.0 4.0 0.00 0.00 0.00 59 1013.5
20260830132206 45 96 1.0 4.0 0.00 0.00 0.00 59 1013.6
20260830132107 45 93 2.0 4.0 0.00 0.00 0.00 59 1013.6
20260830132006 45 90 2.0 2.0 0.00 0.00 0.00 59 1013.6
20260830131906 45 92 2.0 2.0 0.00 0.00 0.00 59 1013.4
20260830131706 45 98 2.0 4.0 0.00 0.00 0.00 58 1013.5
20260830131606 45 98 1.0 4.0 0.00 0.00 0.00 58 1013.4
20260830131506 45 97 1.0 4.0 0.00 0.00 0.00 58 1013.5
20260830131407 45 96 1.0 4.0 0.00 0.00 0.00 58 1013.4
20260830131306 45 96 2.0 4.0 0.00 0.00 0.00 59 1013.4
20260830131206 45 95 1.0 4.0 0.00 0.00 0.00 59 1013.4
20260830130706 45 90 3.0 4.0 0.00 0.00 0.00 59 1013.3
20260830130106 45 110 2.0 4.0 0.00 0.00 0.00 58 1013.3
20260830130007 45 111 2.0 4.0 0.00 0.00 0.00 58 1013.3
20260830125906 45 113 1.0 4.0 0.00 0.00 0.00 57 1013.3
20260830125806 46 0 0.0 4.0 0.00 0.00 0.00 57 1013.3
20260830125706 46 0 0.0 4.0 0.00 0.00 0.00 57 1013.3
20260830125106 47 134 1.0 2.0 0.00 0.00 0.00 55 1013.3
20260830124606 47 0 0.0 2.0 0.00 0.00 0.00 54 1013.4
20260830124507 47 0 0.0 2.0 0.00 0.00 0.00 54 1013.4
20260830123906 47 0 0.0 2.0 0.00 0.00 0.00 53 1013.3
20260830123806 47 0 0.0 2.0 0.00 0.00 0.00 53 1013.3
20260830123706 47 0 0.0 2.0 0.00 0.00 0.00 53 1013.4
20260830123606 47 0 0.0 2.0 0.00 0.00 0.00 53 1013.3
20260830123506 47 0 0.0 2.0 0.00 0.00 0.00 53 1013.3
20260830123406 48 0 0.0 2.0 0.00 0.00 0.00 53 1013.2
20260830123306 48 0 0.0 2.0 0.00 0.00 0.00 53 1013.2
20260830123207 48 0 0.0 2.0 0.00 0.00 0.00 53 1013.1
20260830123106 48 0 0.0 2.0 0.00 0.00 0.00 53 1013.2
20260830123007 48 80 1.0 3.0 0.00 0.00 0.00 53 1013.1
20260830122907 48 80 2.0 3.0 0.00 0.00 0.00 53 1013.1
20260830122306 48 0 0.0 3.0 0.00 0.00 0.00 53 1013.1
20260830122206 48 93 2.0 3.0 0.00 0.00 0.00 53 1013.0
20260830122107 48 93 1.0 3.0 0.00 0.00 0.00 53 1013.0
20260830122006 48 92 2.0 3.0 0.00 0.00 0.00 53 1013.0
20260830121906 48 0 0.0 3.0 0.00 0.00 0.00 53 1013.0
20260830121707 48 189 2.0 3.0 0.00 0.00 0.00 53 1012.9
20260830121606 48 200 2.0 3.0 0.00 0.00 0.00 53 1013.0
20260830121506 48 0 0.0 3.0 0.00 0.00 0.00 53 1013.0
20260830121407 48 241 2.0 3.0 0.00 0.00 0.00 53 1013.0
20260830121306 48 0 0.0 3.0 0.00 0.00 0.00 53 1013.0
20260830121207 49 0 0.0 3.0 0.00 0.00 0.00 53 1013.0
20260830121106 49 248 1.0 3.0 0.00 0.00 0.00 53 1013.0
20260830121006 49 240 2.0 3.0 0.00 0.00 0.00 52 1013.0
20260830120906 49 224 2.0 3.0 0.00 0.00 0.00 52 1013.0
20260830120806 49 188 2.0 3.0 0.00 0.00 0.00 51 1013.0
20260830120706 50 0 0.0 2.0 0.00 0.00 0.00 50 1013.1
20260830120106 50 0 0.0 2.0 0.00 0.00 0.00 50 1013.1
20260830120006 50 0 0.0 2.0 0.00 0.00 0.00 50 1013.0
20260830115906 50 0 0.0 2.0 0.00 0.00 0.00 50 1013.1
20260830115806 50 127 1.0 3.0 0.00 0.00 0.00 50 1013.0
20260830115707 50 0 0.0 4.0 0.00 0.00 0.00 50 1013.1
20260830115606 50 0 0.0 4.0 0.00 0.00 0.00 50 1012.9
20260830115506 50 0 0.0 4.0 0.00 0.00 0.00 50 1012.9
20260830115407 50 0 0.0 4.0 0.00 0.00 0.00 50 1013.0
20260830115306 50 0 0.0 4.0 0.00 0.00 0.00 50 1012.9
20260830115206 50 0 0.0 4.0 0.00 0.00 0.00 51 1012.9
20260830115107 50 0 0.0 4.0 0.00 0.00 0.00 51 1013.0
20260830115006 50 0 0.0 4.0 0.00 0.00 0.00 52 1013.0
20260830114906 50 0 0.0 4.0 0.00 0.00 0.00 52 1013.0
20260830114807 50 59 2.0 4.0 0.00 0.00 0.00 52 1013.0
20260830114706 50 93 2.0 4.0 0.00 0.00 0.00 52 1013.1
20260830114606 50 0 0.0 4.0 0.00 0.00 0.00 52 1013.0
20260830114507 50 0 0.0 4.0 0.00 0.00 0.00 52 1012.9
20260830114406 50 0 0.0 4.0 0.00 0.00 0.00 53 1012.9
20260830114306 49 0 0.0 4.0 0.00 0.00 0.00 54 1012.9
20260830114207 49 113 2.0 4.0 0.00 0.00 0.00 54 1012.9
20260830114106 49 114 2.0 4.0 0.00 0.00 0.00 55 1012.9
20260830114006 49 0 0.0 4.0 0.00 0.00 0.00 55 1012.8
20260830113906 49 0 0.0 4.0 0.00 0.00 0.00 56 1012.7
20260830113806 49 0 0.0 4.0 0.00 0.00 0.00 56 1012.8
20260830113706 49 0 0.0 4.0 0.00 0.00 0.00 56 1012.9
20260830113606 48 65 1.0 4.0 0.00 0.00 0.00 58 1012.8
20260830113406 48 41 2.0 4.0 0.00 0.00 0.00 58 1012.7
20260830113306 48 34 3.0 4.0 0.00 0.00 0.00 58 1012.8
20260830113207 48 30 2.0 4.0 0.00 0.00 0.00 57 1012.9
20260830113106 48 9 2.0 3.0 0.00 0.00 0.00 56 1012.7
20260830113006 49 349 1.0 2.0 0.00 0.00 0.00 56 1012.9
20260830112906 49 339 2.0 2.0 0.00 0.00 0.00 56 1012.8
20260830112806 49 0 0.0 2.0 0.00 0.00 0.00 55 1012.8
20260830112706 49 312 2.0 2.0 0.00 0.00 0.00 55 1012.9
20260830112606 49 286 1.0 2.0 0.00 0.00 0.00 55 1012.9
20260830112506 49 0 0.0 2.0 0.00 0.00 0.00 54 1012.9
20260830112406 49 184 1.0 3.0 0.00 0.00 0.00 54 1012.9
20260830112306 50 0 0.0 3.0 0.00 0.00 0.00 55 1012.8
20260830112206 50 0 0.0 3.0 0.00 0.00 0.00 55 1012.7
20260830112106 50 0 0.0 3.0 0.00 0.00 0.00 55 1012.8
20260830112006 50 0 0.0 3.0 0.00 0.00 0.00 55 1012.7
20260830111906 50 0 0.0 3.0 0.00 0.00 0.00 55 1012.7
20260830111806 50 0 0.0 3.0 0.00 0.00 0.00 55 1012.7
20260830111707 50 0 0.0 3.0 0.00 0.00 0.00 55 1012.6
20260830111606 50 149 2.0 4.0 0.00 0.00 0.00 55 1012.7
20260830111506 50 135 1.0 4.0 0.00 0.00 0.00 55 1012.7
20260830111406 50 121 1.0 4.0 0.00 0.00 0.00 55 1012.7
20260830111306 50 108 1.0 4.0 0.00 0.00 0.00 55 1012.6
20260830111206 50 102 1.0 4.0 0.00 0.00 0.00 55 1012.6
20260830111107 50 0 0.0 4.0 0.00 0.00 0.00 55 1012.7
20260830111006 50 96 1.0 4.0 0.00 0.00 0.00 55 1012.6
20260830110907 50 92 2.0 4.0 0.00 0.00 0.00 55 1012.7
20260830110706 50 79 2.0 4.0 0.00 0.00 0.00 54 1012.6
20260830110607 50 71 2.0 4.0 0.00 0.00 0.00 54 1012.7
20260830110506 50 70 2.0 4.0 0.00 0.00 0.00 54 1012.7
20260830110407 50 69 2.0 4.0 0.00 0.00 0.00 54 1012.7
20260830110306 50 68 2.0 4.0 0.00 0.00 0.00 54 1012.7
20260830110206 50 67 2.0 4.0 0.00 0.00 0.00 54 1012.6
20260830110106 50 60 2.0 4.0 0.00 0.00 0.00 54 1012.7
20260830110006 50 58 1.0 4.0 0.00 0.00 0.00 54 1012.7
20260830105906 50 60 1.0 4.0 0.00 0.00 0.00 54 1012.7
20260830105807 50 65 3.0 4.0 0.00 0.00 0.00 54 1012.6
20260830105606 51 0 0.0 3.0 0.00 0.00 0.00 53 1012.5
20260830105506 51 97 1.0 3.0 0.00 0.00 0.00 53 1012.6
20260830105406 51 99 2.0 3.0 0.00 0.00 0.00 53 1012.5
20260830105306 51 102 2.0 3.0 0.00 0.00 0.00 53 1012.6
20260830105207 51 109 2.0 3.0 0.00 0.00 0.00 53 1012.5
20260830105106 51 118 2.0 3.0 0.00 0.00 0.00 53 1012.4
20260830105006 51 0 0.0 2.0 0.00 0.00 0.00 53 1012.4
20260830104907 51 0 0.0 2.0 0.00 0.00 0.00 53 1012.6
20260830104806 51 0 0.0 2.0 0.00 0.00 0.00 53 1012.4
20260830104706 51 0 0.0 2.0 0.00 0.00 0.00 53 1012.3
20260830104606 51 133 1.0 2.0 0.00 0.00 0.00 53 1012.3
20260830104506 51 133 1.0 2.0 0.00 0.00 0.00 53 1012.4
20260830103906 51 153 2.0 3.0 0.00 0.00 0.00 53 1012.3
20260830103806 51 152 1.0 3.0 0.00 0.00 0.00 53 1012.2
20260830103706 51 0 0.0 3.0 0.00 0.00 0.00 53 1012.3
20260830103606 51 0 0.0 3.0 0.00 0.00 0.00 53 1012.3
20260830103506 52 0 0.0 4.0 0.00 0.00 0.00 53 1012.4
20260830103406 52 0 0.0 5.0 0.00 0.00 0.00 52 1012.4
20260830103306 52 0 0.0 5.0 0.00 0.00 0.00 52 1012.3
20260830102806 52 245 1.0 5.0 0.00 0.00 0.00 52 1012.4
20260830102706 52 244 1.0 5.0 0.00 0.00 0.00 52 1012.4
20260830102606 52 243 1.0 5.0 0.00 0.00 0.00 52 1012.4
20260830102506 52 239 2.0 5.0 0.00 0.00 0.00 52 1012.4
20260830102407 51 244 3.0 4.0 0.00 0.00 0.00 53 1012.5
20260830102307 51 243 2.0 4.0 0.00 0.00 0.00 54 1012.4
20260830102107 51 235 2.0 4.0 0.00 0.00 0.00 54 1012.6
20260830102006 51 224 2.0 4.0 0.00 0.00 0.00 54 1012.5
20260830101906 51 205 3.0 4.0 0.00 0.00 0.00 54 1012.5
20260830101806 51 188 3.0 4.0 0.00 0.00 0.00 54 1012.5
20260830101706 51 181 1.0 3.0 0.00 0.00 0.00 53 1012.5
20260830101606 51 212 1.0 5.0 0.00 0.00 0.00 53 1012.5
20260830101506 51 0 0.0 5.0 0.00 0.00 0.00 53 1012.6
20260830101406 51 0 0.0 5.0 0.00 0.00 0.00 53 1012.4
20260830101306 51 257 2.0 5.0 0.00 0.00 0.00 54 1012.5
20260830101206 51 0 0.0 5.0 0.00 0.00 0.00 53 1012.4
20260830101106 51 0 0.0 5.0 0.00 0.00 0.00 53 1012.4
20260830101007 51 0 0.0 5.0 0.00 0.00 0.00 53 1012.5
20260830100906 51 0 0.0 5.0 0.00 0.00 0.00 53 1012.5
20260830100807 51 267 2.0 5.0 0.00 0.00 0.00 52 1012.5
20260830100706 52 266 2.0 5.0 0.00 0.00 0.00 52 1012.5
20260830100606 52 262 2.0 5.0 0.00 0.00 0.00 52 1012.5
20260830100006 52 0 0.0 3.0 0.00 0.00 0.00 52 1012.3
20260830095906 52 0 0.0 3.0 0.00 0.00 0.00 52 1012.1
20260830095806 52 0 0.0 3.0 0.00 0.00 0.00 53 1012.1
20260830095706 52 143 1.0 3.0 0.00 0.00 0.00 53 1012.1
20260830095606 52 152 1.0 3.0 0.00 0.00 0.00 53 1012.2
20260830095506 52 164 1.0 3.0 0.00 0.00 0.00 53 1012.2
20260830095406 52 0 0.0 3.0 0.00 0.00 0.00 52 1012.1
20260830095306 52 170 1.0 3.0 0.00 0.00 0.00 52 1012.1
20260830095206 51 166 2.0 3.0 0.00 0.00 0.00 52 1012.1
20260830095106 51 171 2.0 3.0 0.00 0.00 0.00 53 1012.1
20260830095006 51 181 2.0 3.0 0.00 0.00 0.00 53 1012.1
20260830094906 51 197 1.0 3.0 0.00 0.00 0.00 53 1012.1
20260830094806 51 212 2.0 2.0 0.00 0.00 0.00 54 1012.1
20260830094706 51 225 2.0 2.0 0.00 0.00 0.00 53 1012.1
20260830094606 51 225 1.0 2.0 0.00 0.00 0.00 53 1012.1
20260830094506 51 225 1.0 2.0 0.00 0.00 0.00 52 1012.2
20260830094407 51 0 0.0 0.0 0.00 0.00 0.00 52 1012.2
20260830094306 51 0 0.0 0.0 0.00 0.00 0.00 52 1012.1
20260830094207 51 0 0.0 2.0 0.00 0.00 0.00 52 1012.1
20260830094106 51 0 0.0 2.0 0.00 0.00 0.00 52 1012.1
20260830093906 51 0 0.0 4.0 0.00 0.00 0.00 51 1012.2
20260830093806 51 0 0.0 4.0 0.00 0.00 0.00 51 1012.1
20260830093706 51 0 0.0 4.0 0.00 0.00 0.00 51 1012.2
20260830093606 51 0 0.0 4.0 0.00 0.00 0.00 50 1012.0
20260830093506 51 0 0.0 4.0 0.00 0.00 0.00 50 1012.1
20260830093406 51 0 0.0 4.0 0.00 0.00 0.00 50 1012.1
20260830093106 52 321 2.0 4.0 0.00 0.00 0.00 49 1012.1
20260830093006 52 329 2.0 4.0 0.00 0.00 0.00 48 1012.1
20260830092906 52 2 2.0 4.0 0.00 0.00 0.00 48 1012.1
20260830092806 53 56 1.0 2.0 0.00 0.00 0.00 48 1011.9
20260830092706 53 0 0.0 2.0 0.00 0.00 0.00 48 1012.0
20260830092606 53 78 1.0 2.0 0.00 0.00 0.00 48 1012.0
20260830092506 53 105 1.0 2.0 0.00 0.00 0.00 48 1011.9
20260830092406 53 0 0.0 1.0 0.00 0.00 0.00 48 1011.9
20260830092306 53 0 0.0 2.0 0.00 0.00 0.00 47 1011.9
20260830092206 53 0 0.0 2.0 0.00 0.00 0.00 47 1011.9
20260830092106 53 0 0.0 2.0 0.00 0.00 0.00 47 1011.9
20260830092006 54 0 0.0 2.0 0.00 0.00 0.00 47 1011.9
20260830091906 54 0 0.0 2.0 0.00 0.00 0.00 46 1011.9
20260830091806 54 0 0.0 2.0 0.00 0.00 0.00 46 1011.9
20260830091706 54 0 0.0 2.0 0.00 0.00 0.00 46 1011.9
20260830091106 55 0 0.0 2.0 0.00 0.00 0.00 44 1012.0
20260830091006 55 0 0.0 2.0 0.00 0.00 0.00 44 1012.0
20260830090906 55 0 0.0 2.0 0.00 0.00 0.00 43 1011.9
20260830090806 55 0 0.0 2.0 0.00 0.00 0.00 43 1011.9
20260830090706 55 95 1.0 2.0 0.00 0.00 0.00 42 1012.0
20260830090605 55 101 1.0 3.0 0.00 0.00 0.00 42 1011.9
20260830090506 55 102 1.0 3.0 0.00 0.00 0.00 42 1012.0
20260830090406 55 101 1.0 3.0 0.00 0.00 0.00 42 1012.0
20260830090306 55 101 1.0 3.0 0.00 0.00 0.00 42 1011.9
20260830090206 55 100 1.0 3.0 0.00 0.00 0.00 42 1012.0
20260830090106 55 100 1.0 3.0 0.00 0.00 0.00 42 1011.9
20260830090006 55 99 1.0 3.0 0.00 0.00 0.00 42 1011.9
20260830085907 56 98 1.0 4.0 0.00 0.00 0.00 42 1011.9
20260830085806 56 0 0.0 4.0 0.00 0.00 0.00 42 1011.9
20260830085707 56 0 0.0 4.0 0.00 0.00 0.00 42 1012.0
20260830085606 56 90 1.0 4.0 0.00 0.00 0.00 41 1012.0
20260830085506 56 91 1.0 4.0 0.00 0.00 0.00 41 1011.9
20260830085406 56 92 2.0 4.0 0.00 0.00 0.00 41 1012.0
20260830085307 56 93 1.0 4.0 0.00 0.00 0.00 41 1012.0
20260830085206 56 96 2.0 4.0 0.00 0.00 0.00 40 1012.0
20260830085107 56 98 2.0 4.0 0.00 0.00 0.00 40 1012.1
20260830084906 57 101 3.0 4.0 0.00 0.00 0.00 39 1012.1
20260830084806 57 107 1.0 4.0 0.00 0.00 0.00 38 1012.0
20260830084706 57 112 2.0 4.0 0.00 0.00 0.00 38 1012.0
20260830084606 58 122 2.0 3.0 0.00 0.00 0.00 37 1012.0
20260830084506 58 127 1.0 2.0 0.00 0.00 0.00 37 1012.0
20260830084406 58 0 0.0 2.0 0.00 0.00 0.00 36 1012.0
20260830084306 58 132 1.0 2.0 0.00 0.00 0.00 35 1012.0
20260830084206 59 0 0.0 2.0 0.00 0.00 0.00 35 1012.0
20260830084106 59 0 0.0 2.0 0.00 0.00 0.00 35 1011.9
20260830084006 59 0 0.0 2.0 0.00 0.00 0.00 35 1012.0
20260830083906 59 0 0.0 2.0 0.00 0.00 0.00 35 1012.0
20260830083806 61 129 1.0 2.0 0.00 0.00 0.00 33 1011.9
20260830083706 61 129 1.0 2.0 0.00 0.00 0.00 33 1012.0
20260830083606 61 127 1.0 2.0 0.00 0.00 0.00 33 1011.9
20260830083506 61 126 1.0 2.0 0.00 0.00 0.00 33 1012.0
20260830083406 61 126 1.0 2.0 0.00 0.00 0.00 33 1012.0
20260830083306 61 127 1.0 2.0 0.00 0.00 0.00 33 1011.9
20260830083206 61 134 1.0 2.0 0.00 0.00 0.00 33 1012.0
20260830083106 61 142 1.0 2.0 0.00 0.00 0.00 33 1012.0
20260830083005 61 134 1.0 3.0 0.00 0.00 0.00 33 1012.1
20260830082906 61 0 0.0 4.0 0.00 0.00 0.00 33 1012.0
20260830082806 61 69 1.0 4.0 0.00 0.00 0.00 33 1012.0
20260830082706 61 47 1.0 4.0 0.00 0.00 0.00 32 1012.1
20260830082605 61 0 0.0 4.0 0.00 0.00 0.00 32 1012.0
20260830082506 61 0 0.0 4.0 0.00 0.00 0.00 32 1012.1
20260830082406 61 0 0.0 4.0 0.00 0.00 0.00 32 1012.1
20260830082306 61 306 1.0 4.0 0.00 0.00 0.00 32 1012.0
20260830082206 61 318 1.0 4.0 0.00 0.00 0.00 31 1012.1
20260830082106 62 0 0.0 4.0 0.00 0.00 0.00 31 1012.0
20260830082006 62 316 2.0 4.0 0.00 0.00 0.00 31 1012.0
20260830081907 62 292 2.0 3.0 0.00 0.00 0.00 31 1011.9
20260830081806 62 273 1.0 3.0 0.00 0.00 0.00 30 1011.9
20260830081706 62 261 1.0 3.0 0.00 0.00 0.00 29 1011.9
20260830081206 64 337 2.0 4.0 0.00 0.00 0.00 27 1011.9
20260830081106 64 337 1.0 4.0 0.00 0.00 0.00 26 1011.9
20260830081006 65 331 1.0 4.0 0.00 0.00 0.00 26 1011.9
20260830080906 65 340 1.0 4.0 0.00 0.00 0.00 25 1011.9
20260830080806 65 0 0.0 4.0 0.00 0.00 0.00 25 1011.9
20260830080706 66 350 1.0 4.0 0.00 0.00 0.00 24 1011.8
20260830080506 66 351 2.0 5.0 0.00 0.00 0.00 25 1011.9
20260830080406 67 345 2.0 5.0 0.00 0.00 0.00 22 1011.9
20260830080306 67 339 2.0 5.0 0.00 0.00 0.00 21 1011.9
20260830080206 68 329 2.0 5.0 0.00 0.00 0.00 21 1011.7
20260830080106 69 319 1.0 8.0 0.00 0.00 0.00 18 1011.8
20260830080006 69 320 2.0 8.0 0.00 0.00 0.00 18 1011.7
20260830075906 69 299 2.0 11.0 0.00 0.00 0.00 17 1011.8
20260830075806 70 279 2.0 11.0 0.00 0.00 0.00 16 1011.7
20260830075706 70 279 2.0 11.0 0.00 0.00 0.00 15 1011.8
20260830075606 71 277 3.0 11.0 0.00 0.00 0.00 14 1011.8
20260830075507 71 267 3.0 11.0 0.00 0.00 0.00 13 1011.8
20260830075406 71 259 2.0 11.0 0.00 0.00 0.00 11 1011.7
20260830074707 71 206 3.0 8.0 0.00 0.00 0.00 10 1011.6
20260830074606 71 190 3.0 8.0 0.00 0.00 0.00 11 1011.7
20260830074506 71 199 3.0 8.0 0.00 0.00 0.00 11 1011.5
20260830074406 71 202 2.0 8.0 0.00 0.00 0.00 11 1011.7
20260830074306 71 207 1.0 8.0 0.00 0.00 0.00 10 1011.8
20260830074106 71 201 3.0 8.0 0.00 0.00 0.00 10 1011.7
20260830074006 71 204 4.0 8.0 0.00 0.00 0.00 10 1011.7
20260830073906 71 215 3.0 8.0 0.00 0.00 0.00 10 1011.7
20260830073806 71 219 2.0 8.0 0.00 0.00 0.00 10 1011.7
20260830073706 71 216 3.0 8.0 0.00 0.00 0.00 10 1011.6
20260830073605 71 214 5.0 10.0 0.00 0.00 0.00 10 1011.8
20260830073506 71 198 2.0 10.0 0.00 0.00 0.00 11 1011.7
20260830073406 71 192 2.0 10.0 0.00 0.00 0.00 10 1011.7
20260830073306 71 186 3.0 10.0 0.00 0.00 0.00 10 1011.6
20260830073206 71 181 2.0 10.0 0.00 0.00 0.00 10 1011.6
20260830073106 71 184 2.0 10.0 0.00 0.00 0.00 10 1011.6
20260830073006 71 185 2.0 10.0 0.00 0.00 0.00 10 1011.7
20260830072906 71 183 3.0 10.0 0.00 0.00 0.00 11 1011.6
20260830072805 71 182 2.0 11.0 0.00 0.00 0.00 11 1011.7
20260830072706 71 193 3.0 11.0 0.00 0.00 0.00 11 1011.7
20260830072606 71 197 5.0 11.0 0.00 0.00 0.00 11 1011.8
20260830072506 70 210 3.0 11.0 0.00 0.00 0.00 12 1011.6
20260830072406 70 215 2.0 11.0 0.00 0.00 0.00 12 1011.7
20260830072307 70 209 1.0 11.0 0.00 0.00 0.00 12 1011.8
20260830072206 70 205 2.0 11.0 0.00 0.00 0.00 11 1011.8
20260830072106 70 208 1.0 11.0 0.00 0.00 0.00 11 1011.7
20260830072006 70 208 3.0 11.0 0.00 0.00 0.00 12 1011.6
20260830071406 69 166 1.0 4.0 0.00 0.00 0.00 17 1011.7
20260830071306 69 147 2.0 6.0 0.00 0.00 0.00 17 1011.8
20260830071206 69 0 0.0 6.0 0.00 0.00 0.00 18 1011.7
20260830071106 69 136 1.0 6.0 0.00 0.00 0.00 18 1011.6
20260830071006 69 0 0.0 6.0 0.00 0.00 0.00 18 1011.6
20260830070906 69 134 1.0 6.0 0.00 0.00 0.00 18 1011.7
20260830070806 69 133 1.0 6.0 0.00 0.00 0.00 18 1011.7
20260830070706 69 122 1.0 6.0 0.00 0.00 0.00 18 1011.7
20260830070606 69 138 2.0 7.0 0.00 0.00 0.00 18 1011.7
20260830070506 69 113 1.0 10.0 0.00 0.00 0.00 19 1011.7
20260830070407 69 107 3.0 10.0 0.00 0.00 0.00 19 1011.6
20260830070306 69 113 1.0 10.0 0.00 0.00 0.00 19 1011.6
20260830070206 69 118 1.0 10.0 0.00 0.00 0.00 19 1011.6
20260830070105 69 121 2.0 10.0 0.00 0.00 0.00 20 1011.6
20260830070009 69 0 0.0 10.0 0.00 0.00 0.00 20 1011.5
20260830065906 68 112 1.0 11.0 0.00 0.00 0.00 20 1011.5
20260830065806 68 109 1.0 11.0 0.00 0.00 0.00 21 1011.6
20260830065706 68 114 1.0 11.0 0.00 0.00 0.00 21 1011.6
20260830065606 68 114 4.0 11.0 0.00 0.00 0.00 22 1011.4
20260830065506 68 129 2.0 11.0 0.00 0.00 0.00 22 1011.5
20260830065406 68 135 1.0 11.0 0.00 0.00 0.00 22 1011.5
20260830065306 68 131 2.0 11.0 0.00 0.00 0.00 22 1011.5
20260830064706 67 177 3.0 6.0 0.00 0.00 0.00 26 1011.6
20260830064606 66 167 3.0 6.0 0.00 0.00 0.00 26 1011.6
20260830064505 66 170 3.0 6.0 0.00 0.00 0.00 27 1011.7
20260830064406 66 158 4.0 6.0 0.00 0.00 0.00 27 1011.5
20260830064306 66 158 3.0 7.0 0.00 0.00 0.00 27 1011.6
20260830064206 66 157 3.0 7.0 0.00 0.00 0.00 28 1011.6
20260830064106 66 159 2.0 7.0 0.00 0.00 0.00 28 1011.6
20260830064006 66 147 2.0 7.0 0.00 0.00 0.00 28 1011.6
20260830063907 67 136 2.0 7.0 0.00 0.00 0.00 28 1011.6
20260830063806 67 131 2.0 7.0 0.00 0.00 0.00 27 1011.6
20260830063706 67 126 1.0 7.0 0.00 0.00 0.00 28 1011.5
20260830063606 67 127 4.0 7.0 0.00 0.00 0.00 28 1011.6
20260830063406 66 129 3.0 7.0 0.00 0.00 0.00 27 1011.5
20260830063306 66 131 4.0 7.0 0.00 0.00 0.00 27 1011.4
20260830063207 66 129 4.0 7.0 0.00 0.00 0.00 28 1011.5
20260830063106 66 118 4.0 5.0 0.00 0.00 0.00 28 1011.4
20260830063006 66 129 2.0 4.0 0.00 0.00 0.00 28 1011.5
20260830062906 67 131 2.0 4.0 0.00 0.00 0.00 28 1011.5
20260830062806 67 133 2.0 4.0 0.00 0.00 0.00 28 1011.5
20260830062706 67 131 2.0 4.0 0.00 0.00 0.00 28 1011.5
20260830062606 67 121 2.0 4.0 0.00 0.00 0.00 27 1011.5
20260830062507 67 112 1.0 4.0 0.00 0.00 0.00 27 1011.4
20260830062406 67 107 1.0 3.0 0.00 0.00 0.00 27 1011.5
20260830062306 67 126 2.0 3.0 0.00 0.00 0.00 27 1011.5
20260830062206 68 143 1.0 3.0 0.00 0.00 0.00 27 1011.5
20260830062106 68 143 1.0 3.0 0.00 0.00 0.00 27 1011.4
20260830062006 68 154 1.0 4.0 0.00 0.00 0.00 27 1011.6
20260830061906 68 0 0.0 4.0 0.00 0.00 0.00 26 1011.6
20260830061806 68 169 1.0 4.0 0.00 0.00 0.00 26 1011.6
20260830061706 68 0 0.0 4.0 0.00 0.00 0.00 26 1011.6
20260830061606 69 0 0.0 4.0 0.00 0.00 0.00 26 1011.6
20260830061506 69 210 1.0 8.0 0.00 0.00 0.00 26 1011.5
20260830061405 69 0 0.0 8.0 0.00 0.00 0.00 25 1011.6
20260830061306 69 0 0.0 8.0 0.00 0.00 0.00 25 1011.6
20260830061206 69 224 1.0 8.0 0.00 0.00 0.00 25 1011.7
20260830061106 69 226 1.0 8.0 0.00 0.00 0.00 24 1011.6
20260830061006 69 228 2.0 8.0 0.00 0.00 0.00 25 1011.5
20260830060906 69 222 2.0 8.0 0.00 0.00 0.00 24 1011.5
20260830060806 70 215 1.0 8.0 0.00 0.00 0.00 24 1011.6
20260830060706 70 217 2.0 8.0 0.00 0.00 0.00 24 1011.5
20260830060606 70 222 2.0 8.0 0.00 0.00 0.00 24 1011.6
20260830060506 70 221 6.0 8.0 0.00 0.00 0.00 21 1011.5
20260830060406 70 221 6.0 8.0 0.00 0.00 0.00 21 1011.7
20260830060307 70 221 6.0 8.0 0.00 0.00 0.00 21 1011.6
20260830060107 70 217 6.0 8.0 0.00 0.00 0.00 21 1011.6
20260830060006 70 221 2.0 8.0 0.00 0.00 0.00 22 1011.6
20260830055906 70 226 4.0 8.0 0.00 0.00 0.00 21 1011.5
20260830055806 70 234 4.0 8.0 0.00 0.00 0.00 22 1011.5
20260830055706 70 235 4.0 8.0 0.00 0.00 0.00 22 1011.5
20260830055606 70 227 4.0 8.0 0.00 0.00 0.00 23 1011.6
20260830055506 70 226 4.0 8.0 0.00 0.00 0.00 23 1011.6
20260830055406 70 226 2.0 6.0 0.00 0.00 0.00 23 1011.5
20260830055307 70 222 2.0 6.0 0.00 0.00 0.00 23 1011.6
20260830055206 70 227 2.0 6.0 0.00 0.00 0.00 23 1011.5
20260830055107 70 227 4.0 6.0 0.00 0.00 0.00 23 1011.5
20260830055006 70 225 4.0 6.0 0.00 0.00 0.00 23 1011.5
20260830054906 70 225 3.0 6.0 0.00 0.00 0.00 23 1011.5
20260830054806 70 217 3.0 6.0 0.00 0.00 0.00 23 1011.6
20260830054706 70 213 2.0 5.0 0.00 0.00 0.00 24 1011.6
20260830054506 70 221 1.0 5.0 0.00 0.00 0.00 24 1011.6
20260830054406 70 213 2.0 5.0 0.00 0.00 0.00 23 1011.7
20260830054306 71 222 3.0 7.0 0.00 0.00 0.00 23 1011.5
20260830054206 71 243 2.0 11.0 0.00 0.00 0.00 23 1011.6
20260830054106 71 254 3.0 12.0 0.00 0.00 0.00 23 1011.5
20260830054006 71 245 3.0 12.0 0.00 0.00 0.00 23 1011.5
20260830053906 71 246 2.0 12.0 0.00 0.00 0.00 23 1011.5
20260830053806 71 247 2.0 12.0 0.00 0.00 0.00 23 1011.5
20260830053706 71 251 3.0 12.0 0.00 0.00 0.00 23 1011.6
20260830053606 71 0 0.0 12.0 0.00 0.00 0.00 24 1011.8
20260830053506 70 249 2.0 12.0 0.00 0.00 0.00 24 1011.6
20260830053407 70 249 1.0 12.0 0.00 0.00 0.00 24 1011.7
20260830053306 70 248 3.0 12.0 0.00 0.00 0.00 24 1011.8
20260830053207 69 232 7.0 12.0 0.00 0.00 0.00 24 1011.8
20260830053106 70 206 4.0 8.0 0.00 0.00 0.00 26 1011.8
20260830053007 70 177 2.0 4.0 0.00 0.00 0.00 26 1011.9
20260830052906 70 138 2.0 4.0 0.00 0.00 0.00 26 1011.7
20260830052806 70 0 0.0 4.0 0.00 0.00 0.00 25 1011.7
20260830052705 70 0 0.0 8.0 0.00 0.00 0.00 25 1011.7
20260830052606 70 110 1.0 14.0 0.00 0.00 0.00 25 1011.8
20260830052506 70 0 0.0 14.0 0.00 0.00 0.00 24 1011.7
20260830052006 70 105 2.0 14.0 0.00 0.00 0.00 24 1011.7
20260830051906 70 103 2.0 14.0 0.00 0.00 0.00 24 1011.8
20260830051806 70 112 2.0 14.0 0.00 0.00 0.00 24 1011.7
20260830051705 70 112 3.0 14.0 0.00 0.00 0.00 24 1011.7
20260830051606 70 100 2.0 6.0 0.00 0.00 0.00 25 1011.8
20260830051506 70 0 0.0 6.0 0.00 0.00 0.00 24 1011.8
20260830051406 70 101 2.0 6.0 0.00 0.00 0.00 24 1011.7
20260830051306 70 102 4.0 6.0 0.00 0.00 0.00 24 1011.7
20260830051206 70 0 0.0 4.0 0.00 0.00 0.00 26 1011.8
20260830051106 69 0 0.0 4.0 0.00 0.00 0.00 26 1011.7
20260830051006 69 95 2.0 4.0 0.00 0.00 0.00 26 1011.7